GFSNE_850_spd_000.txt.gz
Wind_Speed
48 49 51 51 48 48 47 45 43 38 39 39 38 41 41 37 39 37 33 31 31 31 31 31 31 30 29 28 28 28 29 32 35 33 31 20 16 17
47 48 49 50 49 48 49 45 44 45 46 41 38 37 38 38 38 39 35 33 34 32 32 32 31 30 28 28 28 29 31 34 33 30 26 15 15 15
44 46 48 47 47 46 47 45 46 45 46 50 41 39 39 41 40 34 38 40 37 33 32 34 32 29 27 28 29 31 32 32 31 27 22 15 15 15
38 41 44 45 47 47 48 50 49 47 43 47 43 39 42 43 43 39 38 42 39 36 33 33 33 29 28 28 30 31 31 30 27 23 20 17 15 14
32 32 35 40 44 46 48 53 51 49 47 46 49 43 40 43 46 47 43 42 39 37 36 35 33 32 29 28 30 29 29 28 23 19 19 18 14 16
38 38 37 36 40 44 46 48 52 49 47 47 49 46 45 43 44 45 40 46 42 41 35 34 33 31 28 28 28 27 26 23 20 20 18 16 14 17
38 38 38 38 37 38 44 48 46 48 47 46 46 43 45 45 42 51 43 46 40 39 37 34 33 27 26 25 26 25 23 21 17 17 17 15 19 19
42 41 37 37 37 35 36 42 47 51 47 44 48 46 46 49 39 53 41 44 33 40 37 34 29 26 23 23 22 21 22 19 19 19 16 17 20 20
40 40 40 37 38 36 37 38 43 44 48 54 47 42 49 52 39 48 39 44 37 38 28 28 22 21 21 20 18 17 19 19 17 15 17 19 21 21
39 38 35 36 35 35 36 42 40 43 44 41 44 52 48 46 45 43 37 40 35 32 23 17 18 19 18 17 16 16 19 19 17 17 19 19 20 21
33 33 34 38 40 35 38 38 43 41 41 41 41 41 45 46 48 42 36 35 34 28 21 16 16 16 15 16 17 17 17 15 17 19 17 19 20 20
43 44 41 38 36 38 35 36 42 46 41 43 39 37 46 41 34 42 38 41 33 19 18 18 17 11 6 10 8 8 12 15 18 16 17 18 18 20
46 48 47 42 41 38 38 36 38 42 44 45 43 36 45 40 35 35 27 29 24 21 14 17 12 10 10 8 9 9 13 12 15 17 18 19 18 17
45 48 47 46 44 41 40 38 34 34 40 39 41 41 37 34 29 26 24 23 21 14 14 12 10 10 11 11 9 7 10 14 16 15 14 14 16 16
43 46 46 46 42 39 39 36 31 33 36 37 39 36 31 27 25 25 24 22 18 14 11 10 11 10 9 11 13 12 13 12 14 8 12 14 16 17
44 45 42 40 38 36 34 30 30 28 31 33 32 28 28 30 27 23 24 20 15 13 12 11 10 7 9 9 14 14 13 11 12 14 16 17 19 21
39 37 39 42 40 36 33 30 29 24 23 23 23 26 29 29 27 27 22 20 14 13 10 10 7 7 8 10 14 14 12 13 13 16 18 22 22 21
32 31 39 40 38 35 31 28 24 22 20 17 17 22 28 29 28 25 19 15 13 11 10 7 5 5 9 9 8 12 11 13 16 18 20 25 26 19
28 29 36 40 38 34 32 29 25 23 21 17 17 21 27 26 25 22 19 15 13 11 8 5 4 6 10 15 10 6 17 18 21 22 21 23 26 22
27 30 36 41 38 34 30 26 24 22 19 16 16 22 24 24 23 19 16 13 12 10 7 4 3 5 8 11 16 15 12 20 21 23 22 23 23 19
32 30 36 41 38 33 29 25 23 20 15 14 15 22 25 23 20 15 14 13 11 8 4 1 3 6 10 13 18 22 19 16 16 21 22 24 27 26
32 32 37 39 37 31 26 23 20 16 14 13 21 24 23 20 16 15 13 12 10 6 3 1 3 7 10 14 18 20 23 19 16 15 13 16 21 13
32 34 39 38 36 29 23 21 16 13 12 17 24 22 21 17 15 14 13 11 8 5 4 3 6 9 10 16 19 21 22 21 22 19 11 8 11 16

GFSNE_850_spd_003.txt.gz
Wind_Speed
38 41 43 45 47 48 49 48 43 37 40 40 40 42 44 39 38 40 38 37 36 38 39 37 38 41 41 38 36 35 34 34 33 31 31 29 28 22
34 38 39 42 44 46 46 47 49 48 45 43 50 48 44 40 38 40 42 41 40 41 41 41 40 43 42 39 38 35 35 34 31 30 28 27 24 17
32 32 32 32 36 41 44 47 47 48 49 57 51 49 41 42 42 39 44 44 46 41 43 45 44 46 46 43 40 36 34 31 29 28 27 26 21 18
29 29 31 34 37 38 40 43 45 48 48 49 51 47 48 50 48 45 44 44 48 42 40 43 49 48 45 43 39 35 32 29 28 27 26 25 23 20
35 34 34 34 37 40 40 41 41 45 47 50 55 51 50 48 47 49 48 48 46 50 48 39 48 48 46 44 38 34 29 26 28 25 25 24 24 22
34 34 35 35 35 37 38 39 40 42 45 46 48 49 48 50 51 51 51 53 49 51 48 45 48 48 49 41 37 27 27 27 26 25 25 24 22 19
36 39 40 38 36 35 35 37 38 39 41 42 42 42 43 35 45 42 53 54 51 52 52 51 48 48 44 39 30 28 28 26 26 25 24 22 20 17
40 42 39 39 37 32 34 36 36 39 42 42 41 41 45 47 34 42 48 44 41 55 49 49 49 43 41 34 24 25 27 27 26 24 22 21 18 17
37 37 34 33 38 35 39 35 36 40 40 40 41 42 43 44 42 40 40 50 49 47 34 44 43 40 36 25 21 26 28 25 23 22 19 17 17 18
36 33 35 40 36 36 34 39 40 40 41 37 39 43 42 42 39 42 44 43 45 38 35 36 36 34 27 25 25 27 24 23 22 20 18 18 18 19
33 36 40 39 38 40 36 41 45 45 43 40 41 42 42 39 36 46 33 42 38 33 34 29 29 27 22 21 23 22 22 22 20 20 21 19 19 18
36 43 42 40 42 41 43 46 50 47 43 43 42 41 45 40 35 37 36 44 38 28 34 31 27 21 12 21 23 20 20 17 18 20 19 18 18 20
38 44 47 45 42 40 42 40 42 41 41 40 40 39 43 39 39 37 32 41 42 31 32 35 24 19 15 8 15 17 16 17 18 19 20 19 19 18
39 44 49 45 41 43 40 38 40 38 34 34 35 35 37 36 31 28 28 29 29 22 24 25 15 17 19 15 11 16 17 15 16 16 18 19 18 17
41 45 45 41 37 42 37 36 35 34 32 33 34 33 31 26 26 23 19 19 22 17 19 17 12 13 13 13 10 11 11 12 13 15 16 14 15 16
47 43 37 31 33 38 40 37 36 33 34 32 27 26 23 21 20 19 21 20 19 18 16 13 13 10 11 11 9 8 8 6 7 9 13 15 16 17
40 35 31 31 36 40 43 40 39 33 31 29 27 22 19 19 21 21 18 17 17 16 13 12 10 10 10 8 6 4 5 6 8 10 14 16 16 17
33 30 31 32 36 39 41 44 39 32 30 28 23 20 18 21 21 19 17 15 12 11 11 11 10 7 5 3 2 3 6 7 8 12 15 21 22 14
29 32 33 35 38 40 41 43 39 31 28 26 23 19 19 20 20 20 19 15 12 11 11 9 7 4 1 2 4 6 7 9 13 15 16 19 23 18
31 33 35 36 38 42 44 42 36 30 26 24 21 17 16 18 21 19 16 14 12 11 9 7 5 1 3 5 5 5 10 15 16 19 18 17 18 16
36 35 34 36 40 42 43 39 33 28 22 20 17 13 13 17 18 15 13 12 11 9 8 6 3 3 5 7 11 13 6 8 13 16 18 22 20 17
37 36 34 38 40 38 43 37 30 24 20 14 11 10 12 13 13 13 13 12 11 9 6 3 1 4 7 9 11 11 15 13 11 10 12 14 16 7
36 35 35 38 40 37 41 34 26 21 16 12 9 8 9 12 11 12 11 11 9 6 3 0 3 5 7 10 11 14 13 11 11 6 4 7 8 9

GFSNE_850_spd_006.txt.gz
Wind_Speed
35 35 34 34 33 33 36 39 39 44 44 41 40 43 49 50 50 48 45 38 38 34 40 45 47 48 46 47 45 44 44 46 42 39 38 36 35 33
29 29 30 31 31 32 34 35 37 40 46 41 42 42 44 49 53 52 49 44 43 39 37 45 46 48 49 47 46 46 50 48 44 41 39 36 35 34
29 34 34 33 35 36 37 39 41 40 40 52 41 43 45 48 49 52 50 49 49 47 40 41 43 48 47 49 49 49 51 47 46 43 38 37 34 31
38 35 32 30 31 34 37 39 41 42 41 44 49 42 42 44 50 53 53 54 54 50 45 46 44 47 51 54 53 51 51 50 48 43 39 33 32 26
32 27 30 33 38 39 37 37 40 42 43 40 47 44 41 42 43 47 50 53 50 53 48 50 48 47 53 53 58 54 54 54 51 42 36 31 30 25
29 30 35 36 37 35 34 34 35 37 38 39 40 41 40 39 36 40 43 45 50 54 51 53 50 50 54 56 49 58 52 51 48 38 33 30 30 26
34 36 38 37 35 26 33 36 35 40 42 39 40 40 40 36 38 40 44 44 45 39 40 45 50 55 48 51 48 47 48 49 42 35 30 26 25 24
38 40 39 40 34 35 35 33 33 33 36 38 41 39 41 42 41 41 40 41 35 44 39 51 56 52 48 51 52 49 48 43 36 29 28 25 24 23
40 44 43 38 37 40 39 39 41 36 33 37 40 41 40 40 38 41 39 40 44 44 34 41 45 47 46 48 50 43 36 33 29 26 28 26 24 23
41 45 38 37 42 38 41 45 45 44 43 40 40 44 43 43 38 43 47 43 47 51 41 40 39 41 44 43 47 38 33 31 29 25 26 25 23 22
38 34 32 38 38 36 40 44 44 50 45 43 43 45 43 42 39 40 42 38 37 39 37 38 39 37 35 36 36 36 34 29 24 25 25 23 22 21
37 38 36 36 39 40 40 40 45 46 48 50 50 45 40 36 35 39 36 33 34 33 37 39 28 29 18 28 33 32 27 22 26 25 24 22 23 23
37 38 41 44 43 42 38 36 37 41 43 45 42 39 35 35 31 30 29 25 32 40 32 31 31 30 16 18 31 28 23 28 29 27 24 24 22 22
38 41 43 44 39 37 33 34 36 38 38 41 39 36 33 30 27 26 25 25 25 30 23 23 29 36 23 17 18 24 28 27 26 24 22 22 23 22
37 38 40 36 33 33 31 33 36 40 39 39 37 35 32 30 27 24 22 19 18 15 16 26 21 31 19 15 20 28 27 25 22 22 22 22 22 23
38 43 36 33 32 32 34 37 40 39 39 37 36 32 29 28 23 19 15 9 12 19 23 14 22 17 15 14 13 20 21 13 22 21 19 21 21 22
38 37 36 38 38 39 37 40 40 42 41 39 35 31 28 25 21 15 11 12 16 19 16 14 15 13 13 12 12 13 15 16 14 18 19 19 19 19
35 31 37 38 36 38 39 42 43 43 42 40 31 27 25 23 19 12 11 10 11 13 13 13 11 12 11 8 9 12 13 13 15 16 15 15 16 17
34 31 37 38 38 38 40 41 44 45 43 36 29 24 20 18 13 11 10 9 11 12 11 10 11 8 8 6 4 7 9 10 11 11 13 17 19 15
33 34 39 39 36 39 42 44 40 44 41 33 28 22 16 11 10 9 10 10 11 11 11 10 7 5 5 4 2 3 5 8 11 13 13 14 15 16
35 39 40 39 37 39 44 41 39 43 37 30 25 19 13 8 6 6 8 9 9 10 9 6 4 3 1 2 3 2 4 9 12 14 15 14 13 11
38 41 42 37 36 42 42 40 40 42 33 27 22 16 10 4 2 6 7 8 8 7 6 4 4 3 4 6 6 6 5 4 8 12 13 12 10 1
39 40 40 36 40 41 40 39 38 37 28 22 17 11 6 2 5 7 8 8 7 6 5 5 5 6 7 7 7 5 5 3 2 2 1 2 4 10

GFSNE_850_spd_009.txt.gz
Wind_Speed
31 30 29 32 33 31 31 30 32 38 40 38 35 35 37 39 43 46 50 49 48 46 46 41 40 43 45 47 48 49 49 47 47 45 44 46 49 41
30 34 35 34 33 32 31 33 34 35 38 41 38 37 39 41 44 44 45 49 52 52 50 48 43 43 44 47 46 48 50 49 46 45 47 48 51 44
36 36 34 29 27 30 33 36 39 36 35 51 43 40 39 38 40 41 43 44 45 48 50 49 47 45 44 45 44 43 48 51 49 46 50 53 49 45
37 34 29 29 31 33 34 37 37 36 34 37 49 46 38 38 41 41 40 41 41 42 44 46 48 48 50 49 47 46 47 50 51 52 53 55 50 47
37 30 28 32 31 35 34 30 30 37 38 36 40 43 47 42 40 43 41 41 39 38 39 41 44 49 50 45 48 50 48 51 54 54 53 54 44 41
30 27 31 31 34 37 33 31 38 40 36 35 35 40 41 43 38 38 38 35 36 40 38 42 40 43 43 38 44 55 52 50 56 52 57 60 54 46
36 38 39 40 41 37 30 39 41 38 35 38 36 36 40 40 37 39 41 40 43 37 42 38 42 41 43 45 37 41 55 50 50 55 56 56 48 42
46 47 45 47 44 36 38 39 34 32 36 36 37 38 44 40 41 39 42 44 46 37 30 34 36 44 43 46 42 39 43 47 55 53 55 54 41 34
43 44 44 39 36 35 39 38 40 38 35 36 38 39 44 43 44 44 40 40 43 48 43 44 39 49 48 47 45 45 45 53 57 51 48 39 36 30
39 37 38 38 38 36 40 43 44 49 45 38 36 39 44 47 44 45 50 49 49 49 43 43 41 46 46 41 39 37 45 53 48 40 33 33 30 24
37 38 37 38 37 38 42 46 49 47 42 37 41 45 41 45 38 37 41 39 41 39 39 43 40 40 39 38 32 34 43 40 35 31 32 32 24 24
39 39 38 37 39 39 43 45 44 39 37 44 48 46 40 38 30 30 35 40 42 35 35 36 38 36 21 27 30 30 32 32 30 29 27 25 25 27
42 42 42 39 38 43 38 39 37 37 39 40 41 42 40 38 36 32 31 31 32 35 34 33 32 34 27 11 32 35 33 30 27 26 22 23 24 26
39 42 39 41 42 38 38 35 36 34 34 38 39 41 41 39 38 34 30 27 26 30 30 31 30 32 33 18 18 33 29 28 27 27 25 24 22 25
40 35 40 41 37 39 35 33 30 33 37 39 39 42 42 40 35 30 27 25 24 23 21 24 29 25 25 22 25 36 32 30 27 27 29 29 29 29
35 38 45 39 34 37 35 34 33 34 34 36 41 42 42 34 31 26 24 19 16 8 3 12 15 16 15 14 21 32 26 18 30 28 27 28 29 27
36 42 46 37 41 39 39 38 38 40 38 37 40 41 38 32 28 23 17 14 10 5 5 10 16 17 14 12 15 23 24 15 24 26 27 27 25 23
37 38 39 37 37 39 41 41 42 44 41 39 39 40 36 30 23 18 13 10 8 5 7 13 14 13 15 13 15 21 20 14 16 23 21 20 18 18
35 36 36 37 38 41 40 39 44 44 42 39 39 37 30 23 16 13 6 4 5 7 9 8 9 10 12 10 13 15 13 15 16 17 16 16 15 16
31 33 36 37 39 41 40 41 48 45 41 40 40 32 25 17 13 9 3 3 7 8 8 8 9 10 11 9 9 12 12 12 13 12 11 12 13 14
33 37 37 38 40 41 39 45 45 43 39 38 36 26 19 13 9 2 4 7 7 8 7 8 8 10 9 9 10 8 8 10 11 12 12 12 13 12
37 39 37 40 40 39 42 45 43 39 37 36 27 20 15 9 4 8 8 8 7 6 7 8 7 7 5 7 7 6 5 5 6 5 6 8 5 5
37 37 39 41 39 41 42 42 39 36 32 30 21 16 11 9 9 8 10 9 8 8 7 6 6 7 7 8 9 7 6 6 6 4 4 3 10 13

GFSNE_850_spd_012.txt.gz
Wind_Speed
28 30 33 34 32 28 25 26 27 29 37 49 33 34 33 39 41 41 43 44 44 47 49 45 44 44 44 40 45 40 43 47 49 48 48 47 45 47
34 36 35 33 29 26 27 28 28 28 30 44 46 41 41 42 43 39 39 39 41 42 43 44 44 42 41 43 40 45 45 43 48 52 49 47 48 47
36 36 33 27 26 29 28 31 33 29 30 43 41 47 47 43 40 40 41 43 41 39 39 40 42 41 37 38 39 42 43 54 52 48 53 49 48 47
37 33 29 28 31 33 34 38 37 26 31 37 49 48 44 43 44 42 39 40 43 40 41 41 37 35 35 34 34 37 38 44 43 42 46 50 50 47
35 35 37 37 39 41 42 41 32 29 37 38 46 47 48 46 39 39 42 43 36 35 35 33 32 31 35 35 35 36 38 38 34 40 39 49 53 51
39 42 43 41 40 40 37 36 32 39 38 33 34 39 41 41 37 38 45 42 44 37 36 34 35 34 35 37 34 39 37 34 34 41 44 48 50 56
42 44 44 43 36 30 34 36 36 38 37 36 38 36 38 37 37 37 40 44 43 39 40 38 34 37 34 34 34 33 32 32 39 36 39 50 47 55
42 42 40 38 35 36 35 35 35 38 40 41 41 41 42 40 38 40 35 40 47 37 30 41 40 40 45 45 46 41 33 38 37 37 34 36 46 54
38 38 39 39 38 39 41 40 41 38 37 42 45 44 42 39 39 43 44 40 45 47 44 54 42 44 37 39 40 37 35 36 32 36 35 33 55 62
37 38 38 40 41 39 42 44 44 46 45 40 41 43 41 38 37 44 44 49 47 43 38 44 38 40 36 38 40 35 36 35 32 28 42 45 53 53
38 39 36 38 39 39 41 47 49 47 46 41 37 37 37 41 40 36 40 38 37 38 41 41 40 43 46 43 38 36 35 31 26 29 43 48 48 46
41 41 37 37 38 37 44 44 41 48 46 48 46 42 39 35 31 31 34 36 34 33 21 20 25 25 20 24 24 19 14 24 31 34 44 35 31 33
41 43 44 38 35 43 42 39 39 40 43 41 40 38 38 36 36 36 34 34 36 36 34 25 27 29 27 28 12 19 24 27 31 31 33 33 34 33
42 45 46 32 41 43 36 36 37 34 34 38 39 39 39 37 38 40 34 29 27 29 30 28 33 28 28 26 15 24 28 33 34 31 29 27 27 26
40 39 38 37 43 40 36 35 34 33 37 39 41 39 39 36 39 40 32 27 23 23 25 26 24 24 25 25 22 26 30 28 28 30 31 30 27 23
41 37 39 43 43 36 39 42 39 35 34 39 42 40 38 36 40 37 30 24 20 15 15 15 12 13 16 20 20 26 29 19 30 30 30 28 24 25
39 39 41 41 42 41 42 42 42 41 39 45 43 41 42 37 39 31 24 18 14 14 6 2 5 8 8 11 18 29 31 23 30 29 29 29 25 23
40 34 34 36 38 39 41 43 43 42 43 46 43 41 42 36 32 25 18 12 9 4 1 5 10 14 14 14 18 24 23 18 31 28 27 26 26 27
33 30 36 36 38 39 41 41 45 45 47 44 43 41 38 32 23 19 12 6 1 3 6 7 4 5 7 10 15 15 13 16 28 24 22 22 22 21
30 34 35 38 39 40 42 44 46 47 46 43 38 36 31 23 18 13 6 3 5 7 6 7 8 8 10 11 10 12 12 13 19 21 21 18 16 17
35 36 37 38 39 43 43 44 45 46 41 38 35 33 25 19 13 8 6 5 4 6 7 7 9 11 11 12 16 16 15 15 13 13 16 16 16 17
36 37 38 38 41 42 43 45 45 43 38 34 32 28 19 13 10 7 5 4 6 6 6 6 7 8 9 11 14 14 14 12 11 12 12 8 10 11
36 36 38 39 40 41 43 44 41 37 33 29 27 20 15 12 9 7 8 8 7 5 5 6 7 8 10 11 11 12 11 11 11 11 11 13 14 11

GFSNE_850_spd_015.txt.gz
Wind_Speed
33 33 33 32 28 26 25 25 27 28 37 52 37 34 30 30 33 39 41 39 34 34 35 36 39 41 42 42 39 40 46 43 50 47 49 51 53 50
33 34 32 30 28 26 26 28 25 26 28 46 49 38 30 42 46 40 38 43 41 40 40 41 41 39 38 39 40 39 39 39 42 42 45 44 48 51
34 33 29 23 34 35 32 30 32 32 32 50 40 39 42 47 46 42 44 43 43 38 38 39 38 41 40 39 38 37 36 36 37 36 45 42 42 47
33 26 28 31 35 30 31 30 31 28 33 39 39 45 42 39 38 44 43 34 39 42 41 39 37 38 40 37 34 32 33 31 32 32 36 38 49 48
30 30 35 33 33 32 30 31 28 33 33 35 41 41 40 37 41 41 39 43 39 37 35 36 33 37 42 43 39 34 32 33 32 34 34 32 40 41
31 34 32 30 30 32 32 32 34 36 36 36 38 40 40 41 40 43 43 40 41 36 33 31 37 35 31 35 38 37 35 33 30 28 30 32 36 36
36 34 32 31 30 30 32 38 37 38 40 40 40 39 39 41 43 43 40 42 40 34 37 46 34 35 31 30 29 27 33 30 32 31 27 29 34 37
35 34 32 33 31 32 35 34 34 38 41 41 43 41 43 44 46 42 44 40 39 32 34 38 40 46 40 35 39 40 40 37 37 34 30 34 33 35
31 34 37 33 34 37 36 36 37 36 38 40 42 41 41 47 43 45 44 34 41 45 40 43 41 40 36 33 29 28 30 31 31 31 30 32 34 38
31 32 33 35 38 35 39 36 42 51 42 39 40 42 41 44 42 42 42 45 42 43 33 36 35 42 39 35 30 35 38 39 34 30 30 32 34 34
33 34 31 39 37 36 36 40 48 48 45 38 38 38 37 40 35 35 38 35 37 41 29 32 34 27 25 26 28 26 28 26 28 29 28 29 31 29
36 32 35 36 37 30 38 44 46 46 45 47 48 45 35 34 29 29 31 35 36 41 21 22 31 31 18 15 16 12 22 22 16 18 18 21 26 32
41 40 40 39 30 36 41 42 38 41 43 44 38 36 35 38 35 32 30 32 37 39 34 28 26 25 27 28 26 21 14 9 9 18 24 31 37 44
39 43 43 40 42 41 40 36 36 36 38 34 36 38 38 41 36 33 29 30 37 34 30 28 30 26 25 25 23 14 12 21 24 32 34 36 37 38
39 36 38 43 40 38 40 37 33 35 36 38 39 39 41 40 37 33 31 33 31 26 22 22 24 25 23 21 20 15 18 28 33 35 31 28 26 25
36 42 43 36 31 36 40 37 36 35 35 37 39 41 42 39 37 34 32 31 25 21 15 17 18 16 14 16 19 16 21 16 29 32 31 26 25 29
41 42 38 33 37 39 39 37 38 39 39 40 40 42 41 39 37 32 31 23 18 15 13 8 4 4 2 8 12 15 24 24 29 31 31 30 29 27
37 35 34 33 36 39 40 41 42 42 42 44 41 41 40 38 36 29 18 14 10 6 5 4 2 6 15 17 13 20 24 30 30 29 31 29 29 25
31 33 33 36 38 39 39 40 44 45 45 42 42 40 37 35 29 20 14 10 5 4 6 8 6 6 10 13 15 17 26 29 29 27 25 25 30 28
32 33 36 37 38 39 41 43 45 46 44 42 38 35 34 27 20 16 13 9 7 7 6 9 8 10 11 11 12 14 14 23 25 25 24 22 20 19
34 36 37 37 38 40 43 44 45 44 40 38 33 32 27 22 19 16 13 9 7 7 8 9 10 12 12 15 18 19 18 17 16 19 23 21 23 22
36 37 37 36 39 41 43 45 44 41 38 33 30 28 24 20 17 14 12 10 9 9 8 8 8 8 10 15 20 22 20 20 18 18 17 14 17 15
36 35 35 39 40 42 44 42 39 37 33 30 27 24 20 18 16 14 12 11 10 8 6 6 8 9 12 15 16 17 17 17 17 17 14 11 8 10

GFSNE_850_spd_018.txt.gz
Wind_Speed
24 22 23 24 23 24 24 26 29 35 39 49 41 38 37 38 42 36 36 42 46 45 46 43 42 41 42 45 43 42 42 42 40 42 46 44 49 43
23 24 24 25 25 25 28 29 28 32 36 43 44 44 38 39 36 38 40 45 44 37 41 39 36 39 40 42 43 44 45 41 41 39 39 39 38 55
24 25 26 25 27 28 29 29 29 31 33 43 38 44 43 41 41 41 41 39 42 40 41 36 40 42 41 42 43 42 42 42 41 37 38 36 35 39
26 26 27 26 29 29 28 30 31 32 33 37 43 43 43 43 42 40 42 41 42 43 40 41 39 38 39 41 40 43 44 43 40 37 34 35 32 36
27 28 28 29 30 29 30 32 32 33 36 39 43 41 42 42 42 41 40 41 43 41 37 37 35 34 35 37 41 43 43 43 42 37 33 32 32 33
28 28 29 28 29 31 33 32 33 37 39 39 39 40 40 44 41 40 42 42 41 41 40 39 34 36 34 41 37 34 33 32 33 39 35 32 31 34
28 29 29 29 30 29 31 36 36 40 40 39 39 40 44 44 42 42 40 44 47 44 42 42 34 30 35 40 41 38 38 35 33 28 33 33 32 29
30 31 30 30 29 32 33 35 34 38 42 36 38 43 46 40 42 44 42 42 44 47 34 39 41 43 44 42 38 32 32 31 30 34 34 35 37 34
29 31 32 31 33 33 37 37 38 40 30 37 42 43 44 44 43 46 45 42 45 50 40 44 42 38 41 40 37 36 32 27 26 27 32 36 38 39
28 29 31 34 33 36 41 43 36 34 38 42 42 42 44 45 44 44 45 48 49 45 32 37 34 42 39 39 32 27 28 33 31 33 35 37 38 40
29 29 33 35 35 38 42 39 42 43 45 40 38 41 40 40 35 36 40 38 40 37 30 33 35 32 31 38 40 32 31 31 31 32 31 33 34 32
33 33 33 34 38 38 41 47 44 43 46 48 45 41 34 32 30 29 34 38 37 40 26 31 34 34 29 23 18 16 21 21 28 29 27 27 29 31
39 39 38 37 38 44 44 42 38 43 46 41 40 38 37 36 35 35 36 36 39 41 35 30 33 32 28 32 34 29 27 21 17 15 16 18 23 25
40 40 41 38 44 42 38 33 38 37 37 38 39 40 40 41 39 38 36 33 31 35 33 30 33 28 27 27 29 28 22 18 8 11 12 19 24 25
37 39 39 43 39 36 31 36 32 34 36 39 39 41 42 41 39 39 35 32 30 29 28 23 23 24 24 26 27 20 17 3 19 20 21 27 31 38
38 38 41 35 32 32 34 35 34 34 35 38 40 42 41 40 40 37 36 32 30 28 20 16 15 15 18 19 16 16 14 6 21 19 25 27 28 36
39 41 34 34 36 37 36 36 37 39 39 40 41 41 41 40 39 33 30 29 23 18 13 10 8 3 6 8 9 11 11 12 23 26 25 25 23 25
37 32 33 34 35 37 38 40 41 40 41 42 40 40 39 36 36 32 24 17 14 11 11 10 6 5 4 8 6 7 13 22 27 25 25 29 27 24
29 31 32 34 36 38 38 40 42 43 41 39 39 36 32 31 29 23 20 14 12 13 14 13 9 6 6 7 12 13 22 26 29 30 29 29 29 24
30 31 34 36 37 38 39 42 43 42 41 38 35 32 29 28 24 21 18 17 14 12 12 13 12 10 10 9 15 16 22 28 32 30 28 29 30 26
32 34 35 36 37 37 41 43 41 40 36 35 32 28 25 23 20 18 16 13 12 12 12 13 12 13 16 16 19 19 19 23 25 28 30 31 31 28
34 35 36 35 35 40 42 41 40 37 35 32 29 26 23 20 19 18 15 15 13 11 9 10 8 8 10 14 18 20 20 18 17 18 18 17 21 14
33 33 35 35 39 41 40 38 34 34 32 30 28 24 21 20 18 18 15 13 12 9 7 8 9 10 14 16 18 20 21 19 18 16 13 14 14 9

GFSNE_850_spd_021.txt.gz
Wind_Speed
24 26 25 29 28 29 29 29 31 40 46 44 42 38 34 37 36 36 40 40 40 40 42 46 41 39 45 43 40 39 39 37 35 35 36 39 39 37
26 27 28 29 31 30 32 31 31 34 42 44 46 45 44 37 41 38 38 41 42 41 40 41 42 43 46 43 43 42 42 37 36 35 37 35 36 39
26 28 30 30 31 31 32 33 34 32 37 46 44 44 46 45 43 39 40 37 40 40 40 41 42 45 48 47 46 43 41 39 37 33 33 34 33 34
29 30 31 31 32 32 32 33 33 34 38 41 44 45 46 44 43 40 40 39 43 43 40 41 45 42 41 43 45 41 40 38 37 39 36 36 37 35
29 30 31 31 32 32 32 33 36 36 35 40 46 44 45 41 42 38 43 46 41 40 41 40 39 40 41 42 41 42 42 39 37 33 31 31 34 35
29 30 30 31 31 33 36 35 33 36 42 39 42 43 42 44 35 43 50 43 43 45 43 42 41 39 41 41 37 38 36 37 38 32 31 28 28 33
30 29 30 31 32 31 32 34 38 39 40 42 43 40 36 42 40 45 47 48 49 41 42 43 41 40 39 39 38 39 40 38 36 34 32 30 31 26
31 32 31 32 31 32 31 36 36 39 43 43 49 34 38 42 48 42 44 46 52 41 39 47 42 44 43 40 37 33 35 37 37 33 31 34 35 31
31 32 34 33 32 37 37 36 37 39 40 40 43 38 43 47 46 49 44 44 48 52 43 47 43 40 38 36 35 36 33 34 35 34 34 30 33 36
31 32 34 35 39 35 40 42 45 43 44 42 43 43 44 47 46 43 46 50 47 44 34 41 37 45 40 41 40 40 36 34 34 32 27 32 33 33
32 32 35 36 37 37 40 44 47 46 44 38 38 42 42 38 38 39 42 40 43 39 34 38 39 34 42 46 40 30 24 19 19 25 29 31 35 36
36 38 35 36 36 38 40 45 43 45 42 45 43 40 37 37 32 32 37 40 42 40 35 37 41 37 35 28 17 20 38 35 27 28 29 35 36 35
42 41 39 38 38 38 43 39 39 40 43 39 41 40 39 36 37 38 38 39 41 43 41 35 39 38 34 38 34 32 36 28 27 24 21 26 28 31
40 41 41 41 38 42 36 36 36 35 38 38 39 39 38 39 42 40 37 36 36 39 37 33 38 37 37 32 31 32 31 25 22 8 4 8 16 20
39 40 39 40 39 34 36 33 32 36 36 38 38 40 42 41 40 41 40 37 34 32 30 27 25 29 26 27 30 29 22 19 13 5 14 11 21 22
41 40 40 35 34 34 35 35 35 34 35 38 39 41 40 40 41 39 39 37 35 31 21 15 14 17 14 18 21 20 15 11 3 11 13 21 26 30
39 38 33 35 36 36 36 36 37 36 39 40 40 40 40 40 37 34 37 30 21 19 20 16 13 10 4 14 12 7 7 6 7 15 18 23 27 33
34 32 35 34 35 37 38 40 41 40 41 41 40 40 39 37 36 36 30 24 21 21 22 22 16 9 6 9 4 3 1 12 15 18 23 27 28 28
31 32 32 35 37 38 39 40 42 42 42 40 39 38 34 32 31 30 26 22 21 21 20 21 18 11 10 8 10 7 15 21 24 28 29 31 35 35
31 32 34 36 38 39 41 42 43 43 40 38 35 33 30 30 31 28 25 23 23 21 19 18 16 17 16 14 13 13 16 24 28 33 34 34 34 34
33 35 36 37 38 40 41 41 40 39 36 35 34 32 30 29 28 26 24 20 17 18 17 17 11 13 13 19 25 24 20 24 28 33 34 36 35 37
35 35 35 36 39 40 39 39 38 36 35 35 34 32 32 29 25 24 21 19 19 16 12 12 9 10 12 23 27 27 26 25 26 27 27 27 26 20
33 33 35 37 38 37 36 36 35 34 34 34 34 33 31 24 23 20 19 17 16 14 11 10 12 13 15 17 22 23 21 19 18 18 17 14 14 21

GFSNE_850_spd_024.txt.gz
Wind_Speed
27 28 31 31 32 31 32 33 34 43 46 45 41 39 36 38 37 33 41 39 38 40 40 41 39 40 40 42 42 42 42 43 43 39 39 39 37 34
28 33 32 32 33 34 32 32 33 35 46 48 44 44 46 40 40 38 39 40 41 36 37 39 41 41 43 44 43 42 44 43 42 42 40 39 39 34
34 34 33 34 34 33 35 34 35 33 36 48 49 47 46 50 52 40 39 40 40 34 37 42 43 41 41 42 44 44 42 41 40 40 39 37 36 37
39 36 35 34 36 34 33 36 34 36 39 41 47 45 47 50 45 49 40 41 31 39 39 46 40 38 42 41 41 43 45 43 40 38 36 35 36 38
38 37 36 34 34 34 35 37 40 38 36 36 46 49 45 45 49 47 42 36 36 39 47 38 38 38 39 39 40 40 41 43 42 39 38 37 32 35
39 36 31 30 33 36 38 38 34 34 36 41 43 43 43 50 43 35 43 43 48 44 42 42 36 39 39 38 36 38 39 36 34 33 33 30 33 35
39 30 31 32 32 33 34 36 38 42 43 38 40 43 44 44 39 41 46 49 49 43 43 39 41 42 43 38 37 34 32 32 32 31 32 30 32 36
35 34 34 34 33 33 35 38 37 39 41 44 41 44 48 46 45 43 43 48 51 37 35 56 42 45 44 39 35 31 33 32 32 33 32 33 31 32
33 36 36 35 37 41 39 39 40 37 37 42 44 44 47 46 46 48 46 44 44 45 44 48 40 42 39 43 40 39 34 34 35 36 34 33 34 33
36 35 35 39 41 38 41 43 45 45 41 40 40 42 42 45 44 43 44 50 49 42 34 42 41 41 46 44 37 38 38 36 32 33 30 32 34 33
35 33 35 40 38 38 41 46 45 42 46 38 37 38 40 39 37 40 42 41 44 39 36 43 39 43 46 44 39 27 28 22 30 27 29 27 24 26
37 41 39 37 39 39 40 44 40 45 43 42 44 46 40 41 35 34 39 41 42 44 38 38 41 40 40 33 15 25 34 33 30 31 27 27 27 31
42 45 43 39 39 39 40 37 38 41 40 43 42 42 41 39 41 39 37 39 43 43 40 36 39 40 35 36 33 36 28 36 34 25 22 26 33 38
40 44 44 40 40 37 35 36 33 35 38 41 41 39 40 42 39 37 35 34 35 39 35 32 38 38 38 36 31 29 37 28 18 20 20 20 28 34
41 39 39 39 35 37 33 33 32 37 39 41 38 42 42 39 38 37 35 33 33 28 24 22 21 18 15 24 27 32 28 21 15 16 6 5 13 19
42 40 37 35 34 33 36 37 38 37 36 37 39 41 40 39 38 35 38 36 36 29 28 25 22 19 17 11 21 26 15 14 20 7 8 6 15 21
39 37 40 37 38 38 38 40 40 40 40 40 40 40 38 36 34 33 34 35 30 29 32 32 26 13 11 9 19 18 15 11 7 13 19 22 24 21
34 36 35 36 36 38 40 42 43 41 41 39 38 36 35 33 34 33 33 34 29 30 29 29 24 14 8 3 9 13 7 9 11 19 28 35 38 35
33 34 35 36 38 39 41 42 42 42 38 36 36 36 35 35 36 37 33 33 27 28 25 22 22 20 16 14 17 10 11 16 20 27 33 37 41 39
35 34 36 37 39 41 42 41 41 39 36 37 36 36 36 38 37 34 31 28 24 25 22 20 18 18 14 13 17 16 15 26 31 35 39 41 41 38
36 36 35 38 39 41 40 38 37 37 35 36 37 37 37 37 32 27 27 25 23 23 19 19 15 10 14 23 24 24 23 26 31 36 37 41 42 44
35 35 37 36 37 38 37 36 37 35 35 37 37 37 36 32 27 26 25 23 22 17 14 12 13 15 22 26 26 26 25 24 26 30 29 30 27 29
35 36 36 35 37 36 36 35 34 32 35 35 36 36 34 29 24 23 21 19 15 14 11 12 13 14 20 25 25 25 24 25 24 24 28 31 35 36

GFSNE_850_spd_027.txt.gz
Wind_Speed
27 26 28 34 33 32 33 34 34 41 47 44 39 37 34 37 36 32 38 42 41 40 38 39 39 37 37 38 40 42 42 42 42 43 45 46 47 46
27 29 33 38 35 33 31 32 35 35 44 47 45 43 43 38 38 37 41 39 39 38 38 38 38 35 37 41 45 43 42 42 41 43 45 46 45 42
30 35 39 37 34 33 32 30 32 32 38 53 49 48 48 51 48 45 38 38 41 39 36 36 35 41 42 48 45 42 41 41 42 43 43 41 41 41
37 37 38 37 32 29 29 33 35 39 37 41 50 49 49 51 49 48 40 40 36 37 32 36 40 48 47 44 41 39 40 41 41 42 43 43 44 41
35 38 38 32 30 30 33 36 37 35 32 35 45 48 48 42 47 42 42 47 41 38 42 43 42 43 41 39 37 38 40 40 40 41 41 42 41 40
36 37 35 31 30 33 35 34 33 37 40 41 44 41 46 39 38 45 47 44 42 41 42 42 39 37 34 37 41 37 37 37 38 39 39 39 37 35
36 35 35 29 29 29 31 37 39 41 42 38 43 39 36 47 44 43 45 46 44 41 41 42 34 38 47 42 37 35 33 33 34 35 35 36 37 36
36 38 37 34 32 32 35 35 34 39 43 45 38 38 45 43 43 45 46 40 42 38 36 45 41 46 44 39 36 34 34 35 39 37 37 35 34 33
35 37 38 36 36 39 40 37 40 39 36 38 42 43 44 45 48 44 41 42 44 45 43 50 39 41 39 41 37 34 36 39 38 36 36 34 35 36
35 35 34 39 39 37 41 44 44 40 40 36 37 41 43 43 43 44 44 47 44 42 37 45 40 43 44 44 36 35 37 37 36 35 34 36 35 36
35 36 36 36 39 37 39 43 42 40 43 36 35 36 40 39 36 38 41 40 41 38 43 40 43 45 42 43 36 25 22 26 29 30 31 29 30 31
38 42 37 37 36 36 39 39 37 44 40 37 43 43 36 36 33 33 37 38 39 41 40 36 41 41 36 33 21 29 33 35 32 28 29 30 31 33
41 42 44 38 35 38 35 38 35 37 38 40 37 40 39 38 38 33 31 33 39 41 37 35 38 39 33 34 35 36 35 32 33 38 30 29 32 34
36 44 42 36 38 36 33 30 32 32 36 38 38 39 40 39 35 32 29 29 29 34 31 22 27 28 30 33 33 32 34 32 25 20 20 20 25 33
39 36 34 37 35 32 29 30 31 37 38 38 38 39 38 36 36 34 32 30 31 31 27 24 30 29 29 28 30 31 33 33 15 24 20 17 21 28
38 38 40 33 30 30 33 37 36 35 33 36 38 37 37 37 36 33 34 34 35 37 29 28 26 23 23 20 19 25 28 24 25 16 8 4 6 16
36 38 37 35 37 37 37 38 38 37 38 37 36 38 38 37 36 33 34 34 32 33 31 29 25 16 12 10 14 21 22 17 12 11 21 22 14 9
31 33 34 35 35 36 38 41 40 38 37 34 36 37 37 36 36 36 31 31 31 29 28 26 25 21 13 11 17 23 15 16 16 21 29 34 33 19
30 32 33 34 36 37 39 40 40 37 35 34 37 36 35 36 34 34 31 28 30 28 23 22 21 20 19 17 26 18 15 23 26 32 37 41 44 40
30 32 34 35 36 37 39 38 37 35 33 35 35 35 35 35 35 31 28 27 28 24 24 21 19 14 14 14 17 32 20 28 33 33 37 40 42 41
33 33 33 34 35 37 36 35 34 34 33 34 34 35 35 34 33 28 25 23 21 21 21 20 16 9 11 20 25 34 29 26 30 33 34 40 39 45
32 33 33 33 35 35 35 34 33 33 33 32 33 34 33 32 29 25 22 21 19 16 14 13 12 14 20 23 24 27 31 29 26 28 29 31 30 36
32 33 33 33 35 34 32 33 33 33 30 32 32 31 30 30 24 22 20 17 15 13 11 11 13 16 20 22 25 27 33 37 39 40 37 35 39 41

GFSNE_850_spd_030.txt.gz
Wind_Speed
26 25 26 30 33 33 32 29 29 39 43 36 33 33 32 33 34 34 36 37 35 36 38 39 40 41 41 39 39 41 39 39 38 40 42 44 46 44
26 29 32 32 34 33 30 28 26 30 41 44 45 41 37 35 36 37 38 34 36 40 38 39 39 40 39 40 40 38 40 39 43 45 45 44 44 45
29 31 32 34 35 33 31 29 30 31 36 49 48 46 45 47 43 38 36 37 37 35 39 45 46 44 43 43 42 43 46 47 46 44 43 42 43 42
29 31 33 34 35 33 30 30 32 34 35 38 48 51 47 49 45 42 39 33 36 42 42 42 42 42 44 46 46 46 46 44 43 44 44 43 44 45
29 32 34 34 37 34 32 34 35 33 33 39 46 50 50 44 47 40 39 44 39 38 40 36 36 37 39 39 41 41 40 40 38 39 40 41 42 42
30 32 33 34 37 33 35 34 33 39 41 42 44 42 44 43 32 45 46 40 44 45 41 36 37 40 39 37 38 39 41 43 41 39 40 40 41 42
31 31 32 35 31 30 31 37 39 42 43 40 44 45 30 45 39 43 45 48 45 36 35 48 42 40 43 43 42 40 39 37 36 36 37 37 37 39
33 34 36 34 30 33 36 34 34 39 42 45 33 42 44 40 43 46 45 38 44 41 39 45 41 46 46 45 39 36 37 37 38 39 39 39 38 38
33 32 34 34 37 37 38 36 38 38 31 40 40 40 41 46 44 39 43 44 45 49 43 48 42 42 43 44 38 37 38 39 39 38 39 39 40 40
31 31 33 38 36 36 38 43 34 45 42 39 36 40 40 42 44 44 42 44 43 43 35 41 45 46 44 42 39 38 37 36 37 37 39 39 40 41
32 32 33 34 38 35 37 41 41 44 42 35 35 36 40 35 33 35 39 38 40 43 40 37 44 45 44 44 38 30 22 27 31 33 33 34 32 36
36 39 35 36 35 33 39 38 42 38 40 37 45 38 32 34 31 30 35 38 39 43 39 35 42 41 31 35 27 35 35 33 30 30 33 34 33 32
38 38 42 35 34 36 33 33 31 36 38 38 34 38 39 37 35 34 32 33 38 41 38 34 40 40 34 36 38 38 38 35 35 36 34 33 35 36
35 41 37 35 36 32 28 27 30 31 32 35 38 39 40 39 37 35 32 30 30 33 34 29 37 38 40 39 42 40 37 33 32 32 24 21 24 29
36 34 34 35 32 29 27 28 28 33 34 36 37 37 38 37 37 36 34 33 32 31 29 27 28 30 31 34 39 38 35 36 23 24 33 29 24 25
35 39 37 31 27 27 30 33 33 32 30 35 35 36 37 37 38 35 37 36 36 35 31 26 25 26 29 25 25 30 30 26 30 24 20 13 12 20
33 34 32 32 32 31 34 35 36 34 35 33 34 36 36 37 37 35 35 35 34 36 36 31 25 22 16 16 22 28 29 24 21 18 15 17 15 6
28 30 32 32 32 33 36 38 37 35 34 33 34 35 37 37 37 36 33 34 32 35 33 29 26 24 21 21 25 33 22 23 26 25 26 27 22 11
28 30 31 31 32 34 36 37 37 35 33 32 34 35 35 35 36 35 34 32 31 32 28 25 22 25 26 20 28 32 25 23 27 31 31 34 38 26
28 29 31 31 32 35 36 35 35 35 33 33 33 34 34 34 34 33 32 30 28 27 27 24 22 21 18 18 18 33 31 25 28 30 32 37 38 32
30 30 30 30 32 35 34 34 35 34 33 32 32 32 31 32 31 30 29 25 24 23 24 23 19 12 14 20 26 31 34 31 30 29 31 34 37 47
29 30 29 30 33 34 33 34 34 32 31 31 30 30 29 29 27 28 25 25 22 20 17 16 13 14 18 23 27 30 35 38 38 42 44 43 35 37
29 29 29 31 33 33 32 33 32 31 30 30 30 30 29 27 23 24 21 21 18 16 14 13 12 15 18 23 27 28 31 34 37 38 39 39 40 43

GFSNE_850_spd_033.txt.gz
Wind_Speed
24 24 26 27 27 29 29 27 28 34 46 34 29 40 35 36 35 34 37 37 34 36 38 39 42 42 41 41 42 42 42 44 42 42 44 42 40 42
26 28 28 28 30 31 30 30 27 30 37 48 47 44 40 39 39 36 39 36 38 37 38 37 37 41 44 47 48 48 45 43 41 41 41 42 42 44
26 27 28 29 31 31 32 33 30 31 36 49 48 49 53 48 46 43 40 38 41 38 34 39 49 49 45 42 43 43 45 46 45 45 44 44 44 45
27 28 29 30 31 33 36 34 34 34 35 40 47 55 52 51 51 45 40 34 35 38 50 45 41 41 41 41 38 39 41 42 44 46 47 48 46 46
28 29 30 30 33 35 34 35 35 34 35 38 47 47 50 47 47 41 42 42 39 39 40 38 38 36 35 37 40 43 42 42 41 42 43 43 41 41
29 28 30 31 33 31 32 32 35 39 42 43 43 44 42 39 42 44 47 40 46 44 40 37 36 42 46 44 41 40 40 40 42 42 43 42 42 43
30 31 31 29 27 26 30 37 36 38 41 41 44 34 43 40 44 43 44 46 44 38 42 49 42 41 44 41 39 38 37 38 38 39 39 40 40 41
31 30 29 28 30 31 31 31 30 35 42 33 47 43 45 43 46 45 42 42 50 42 34 51 44 45 46 43 39 36 36 37 38 39 39 39 39 40
30 30 29 31 34 35 37 34 35 29 35 36 42 41 44 46 43 46 47 43 46 49 40 47 44 45 45 42 38 37 37 38 38 38 39 39 40 41
30 29 31 34 32 35 37 35 42 43 42 37 34 39 40 43 43 41 43 45 46 44 34 40 46 48 45 44 40 37 35 34 34 35 36 37 38 39
32 32 29 31 36 34 35 41 41 44 34 36 32 37 38 32 31 34 40 40 44 43 41 37 43 44 45 47 39 34 29 32 33 33 34 34 35 35
35 33 33 34 33 32 36 38 40 36 39 37 43 36 32 33 32 31 34 38 40 45 39 36 43 40 32 37 33 40 38 39 33 32 34 35 35 36
38 39 41 34 33 34 32 33 31 35 37 37 34 37 36 36 35 34 33 33 39 42 40 35 40 40 33 39 39 42 40 38 37 34 30 32 35 37
34 39 37 35 34 32 28 26 29 30 32 33 36 38 37 38 37 36 34 33 33 36 36 31 36 36 39 41 43 43 40 37 34 30 25 25 28 33
32 34 35 35 32 29 25 26 26 31 32 34 37 35 36 37 38 38 35 34 35 33 32 30 29 30 32 38 42 40 39 39 22 28 31 31 31 29
34 36 35 30 27 26 27 30 31 30 28 32 34 34 36 38 38 37 39 38 39 38 34 31 27 27 30 29 30 34 35 29 32 28 29 28 23 23
31 32 31 30 30 29 31 33 33 32 33 33 33 35 36 37 38 36 37 37 37 39 39 35 28 26 23 18 26 34 36 31 29 29 24 21 11 11
28 29 30 30 30 31 34 36 35 34 35 33 32 34 36 37 38 37 36 36 36 37 36 32 32 33 31 24 30 36 36 32 25 27 29 22 21 7
27 28 29 30 31 32 35 35 37 36 35 32 33 34 34 34 35 36 37 35 36 35 32 30 30 30 31 27 27 32 41 34 25 29 31 27 23 12
27 28 29 29 30 33 35 35 36 35 33 32 33 31 32 34 34 34 34 33 35 32 30 28 27 26 24 21 23 34 42 45 33 27 31 32 24 20
28 29 28 29 31 34 35 34 35 34 33 33 31 32 32 33 32 30 31 29 29 28 27 27 24 17 14 21 28 32 37 41 44 46 23 30 37 30
28 29 28 29 31 34 34 33 33 32 32 32 32 32 30 30 29 27 29 28 27 23 21 20 19 14 15 22 25 27 33 38 41 45 49 47 36 26
28 28 29 29 33 33 33 31 31 32 33 31 32 32 29 27 23 23 25 23 22 19 18 18 16 14 16 18 21 24 29 35 38 42 48 49 42 46

GFSNE_850_spd_036.txt.gz
Wind_Speed
22 23 24 24 24 25 26 26 28 35 49 33 25 46 44 39 34 33 35 39 34 35 37 40 41 41 42 42 41 39 42 43 43 43 42 43 43 45
24 24 25 25 25 26 27 27 27 32 38 47 49 47 45 43 43 35 40 35 37 36 36 36 37 40 42 42 48 50 51 47 46 46 46 46 43 42
24 25 26 26 28 27 27 29 31 30 38 54 48 51 52 47 45 44 41 37 37 33 36 39 47 47 45 46 45 44 44 43 42 41 41 43 44 43
26 27 29 29 29 29 29 29 30 30 33 43 50 51 49 46 50 43 40 45 48 44 39 39 39 41 42 42 42 42 42 40 40 39 39 41 44 44
28 29 31 31 31 29 27 29 29 31 33 38 46 46 49 44 41 48 46 44 41 39 38 39 37 38 40 40 41 42 44 46 47 46 44 43 42 42
29 30 29 28 28 27 27 29 32 38 39 40 40 43 34 46 42 46 43 44 45 40 42 43 37 38 39 39 39 39 40 40 40 40 40 40 42 41
29 28 27 26 24 24 27 33 33 35 40 40 32 45 42 44 44 46 45 47 45 41 41 46 41 45 47 42 39 38 36 36 36 37 37 38 39 41
29 28 28 28 30 29 29 28 28 36 31 42 43 40 43 43 46 45 42 46 46 40 33 52 45 47 45 45 41 35 36 37 37 38 38 39 39 39
27 29 30 32 30 32 33 33 32 33 35 36 39 38 43 43 41 48 48 44 45 49 43 50 45 48 46 44 39 37 37 37 37 38 39 39 39 40
28 29 32 35 33 32 35 35 40 41 41 34 33 37 37 41 40 39 42 44 46 45 36 43 47 48 47 46 43 37 35 35 36 36 36 37 37 38
29 30 32 30 34 31 33 38 40 42 32 33 31 33 38 32 29 32 38 40 43 46 45 39 43 46 49 47 36 33 32 32 34 35 35 37 37 37
31 36 34 32 30 31 34 36 39 35 37 36 41 35 30 29 30 30 34 37 39 43 42 37 44 42 32 34 34 44 40 35 30 31 33 34 36 38
35 36 37 32 32 32 30 31 29 32 36 36 33 33 33 33 33 34 32 32 37 40 38 35 39 41 32 42 49 47 39 41 39 36 32 31 35 38
32 36 36 33 32 30 28 25 27 28 31 30 33 35 36 36 36 34 33 32 32 35 34 28 34 36 39 45 47 46 43 40 36 29 26 28 28 29
31 32 33 33 32 30 25 24 26 28 29 31 34 35 35 35 35 36 34 34 34 32 30 28 29 32 34 40 43 42 43 44 26 34 33 33 31 28
34 36 34 31 27 26 26 27 28 28 28 32 34 33 35 35 35 35 37 38 39 39 33 30 30 32 34 32 29 35 41 32 45 36 34 36 30 28
30 32 32 30 29 28 29 30 31 31 32 32 33 33 33 34 35 35 35 37 37 40 41 35 32 32 30 22 27 35 42 40 39 32 30 30 22 8
28 29 30 29 29 30 32 34 33 33 33 32 31 32 33 35 36 36 33 35 36 38 40 35 37 39 36 30 26 36 40 42 42 30 28 25 21 11
27 27 28 29 29 30 33 34 35 34 33 31 33 32 34 34 34 35 33 34 35 35 34 32 34 32 33 31 28 31 43 44 44 30 30 27 21 13
26 28 29 28 29 31 34 35 35 33 32 33 34 32 32 33 33 32 30 33 33 33 32 30 31 29 28 23 24 32 37 44 46 37 27 27 22 24
28 28 28 28 29 32 33 34 33 33 34 35 33 33 32 31 29 28 29 28 29 28 28 28 26 23 21 23 28 30 31 39 44 47 30 29 26 24
27 28 27 28 30 32 33 32 33 33 34 32 32 32 30 28 27 28 27 27 26 25 23 22 21 21 23 25 25 27 30 33 38 40 40 38 26 16
26 26 27 28 30 31 31 31 33 33 31 30 30 29 29 27 25 24 24 24 22 23 20 22 20 19 19 21 23 25 27 29 33 36 39 38 36 33

GFSNE_850_spd_039.txt.gz
Wind_Speed
19 20 21 21 23 24 25 26 25 34 42 26 14 30 29 28 29 29 28 30 33 34 35 36 37 38 39 39 38 39 40 40 41 40 42 44 45 45
20 21 22 23 25 26 26 27 28 29 41 38 39 34 31 31 32 30 31 33 33 35 37 38 40 40 41 42 44 45 44 44 46 46 47 46 48 49
21 23 24 25 27 27 28 28 29 28 36 52 39 40 36 34 33 30 30 31 38 40 36 37 37 38 39 40 41 42 42 42 42 43 44 43 43 42
23 25 26 27 28 28 28 27 27 26 31 43 45 42 39 36 34 33 39 39 34 35 36 36 36 38 38 38 39 40 41 41 43 43 43 42 42 42
25 26 27 27 28 28 26 25 27 26 27 35 45 46 41 33 38 43 36 37 32 33 38 35 35 36 37 38 39 40 41 41 42 43 44 44 44 44
25 26 26 26 27 25 25 24 24 30 33 35 40 38 35 45 43 39 40 40 38 37 45 36 36 36 37 38 38 39 39 39 39 39 40 41 41 42
26 26 25 25 24 23 24 26 29 31 35 38 26 39 43 40 37 39 40 43 42 38 42 39 36 47 44 41 38 36 35 35 36 37 37 38 38 40
27 26 26 25 27 23 26 25 25 29 36 34 42 38 38 34 41 40 40 42 45 35 33 52 45 47 45 43 38 36 37 37 38 39 40 39 40 40
26 26 27 27 29 29 30 28 32 25 33 35 35 33 37 39 40 43 46 42 42 46 40 47 46 47 44 44 41 38 37 36 37 38 39 40 40 40
25 25 27 32 29 28 31 33 38 38 30 30 29 35 35 37 39 37 38 40 43 45 32 41 45 44 45 48 41 27 29 32 33 34 36 38 39 40
25 27 30 26 29 28 30 37 34 33 32 28 30 30 36 31 26 27 32 35 40 45 42 30 32 45 48 45 32 38 36 33 34 33 35 37 39 39
25 25 26 28 27 28 32 32 33 33 33 33 35 33 27 26 25 24 29 33 36 38 35 33 41 34 31 30 37 47 44 38 37 34 33 35 35 37
26 28 28 28 28 31 29 29 27 29 31 33 31 30 29 28 29 28 28 29 34 36 37 31 38 39 28 40 52 49 42 42 42 37 30 27 27 33
27 29 31 30 31 29 27 25 24 25 28 27 29 31 32 32 30 28 29 28 29 33 32 26 31 34 38 45 46 46 43 44 41 34 34 37 32 30
28 29 29 31 31 28 24 22 23 25 25 27 31 31 31 31 31 32 32 30 31 31 29 24 27 32 36 40 44 44 43 47 34 39 42 38 36 32
30 33 32 29 26 23 23 24 26 25 24 28 31 31 32 33 34 34 35 34 36 35 31 27 29 32 34 33 32 35 41 38 49 46 40 31 27 27
28 29 30 28 27 25 25 27 28 28 28 29 30 33 34 33 33 32 32 32 33 36 38 30 31 30 29 29 29 29 38 43 45 42 30 22 17 18
26 28 28 27 26 27 28 31 30 29 29 29 31 33 33 33 34 32 28 30 32 34 35 33 35 37 37 35 21 29 37 42 45 32 23 27 20 21
25 26 27 26 27 27 29 31 32 30 30 31 31 30 31 31 29 29 29 30 30 32 33 30 31 31 31 30 25 27 34 39 43 31 23 20 24 20
23 26 26 25 26 28 30 32 32 31 31 31 30 29 28 30 30 28 28 29 30 30 31 28 28 28 27 26 25 32 25 32 37 39 28 19 18 15
25 25 24 25 27 29 31 31 30 32 32 30 28 29 29 30 29 27 27 26 27 26 29 29 26 22 22 24 27 30 25 22 26 33 35 24 22 17
24 25 25 25 28 30 30 29 32 31 31 28 29 28 29 29 28 27 26 26 25 24 25 25 23 21 22 24 25 28 28 24 19 22 22 25 23 19
24 24 25 26 28 29 29 30 31 30 28 29 30 28 30 29 25 23 25 24 24 23 22 24 21 18 20 22 23 26 26 26 25 24 23 24 23 20

GFSNE_850_spd_042.txt.gz
Wind_Speed
16 16 17 17 18 18 18 18 22 33 33 24 18 23 27 28 29 30 31 31 33 35 35 36 36 38 38 39 39 40 40 41 41 42 43 43 43 44
17 17 18 19 20 20 19 19 20 26 38 30 30 28 27 29 29 30 31 33 35 35 36 37 39 37 37 38 39 39 39 40 40 41 41 41 43 44
18 19 21 20 20 19 19 20 22 23 34 40 32 30 31 30 31 29 29 33 39 37 36 36 36 36 36 37 39 40 40 40 41 42 43 43 43 43
19 20 20 20 23 21 19 21 22 24 30 41 39 36 34 33 31 30 33 38 35 34 34 35 37 37 37 36 37 38 39 40 41 41 42 42 42 44
20 21 22 23 21 19 20 22 23 26 30 35 42 40 38 36 32 38 32 32 31 32 35 35 35 37 37 37 38 39 40 40 41 42 42 43 44 44
21 23 23 22 19 20 22 23 25 28 31 34 37 41 36 35 40 36 34 35 36 35 39 35 34 35 36 37 39 40 39 39 39 39 40 41 42 43
21 22 21 22 25 22 22 23 27 30 32 35 37 32 40 40 35 36 37 39 41 35 38 39 35 43 43 38 38 36 35 35 37 38 39 39 40 41
21 21 20 21 20 22 24 25 26 28 34 36 37 38 35 35 35 37 42 38 46 33 29 49 42 44 42 42 37 36 37 38 38 39 40 40 41 42
20 20 21 20 21 23 24 26 27 29 28 34 34 32 34 34 40 41 41 44 40 43 37 48 41 43 43 42 39 37 34 33 35 36 38 39 40 42
19 20 21 21 22 23 28 31 32 31 28 28 29 32 35 35 35 38 38 41 41 39 30 39 43 40 42 45 36 25 33 32 32 34 35 37 38 39
19 20 21 23 22 27 28 33 31 30 27 26 28 30 31 33 28 29 32 33 41 39 42 29 31 42 46 43 32 31 32 35 31 32 35 37 37 39
20 21 22 22 26 26 30 31 33 29 29 33 29 27 24 24 23 22 27 30 35 41 30 31 40 31 27 31 36 48 43 36 35 37 35 35 35 37
22 23 22 25 27 30 29 28 26 28 30 29 26 24 22 22 22 23 24 27 32 37 37 32 37 39 27 39 50 46 43 43 43 40 32 32 33 31
23 23 26 28 30 30 27 24 24 25 22 22 23 25 26 29 30 29 28 29 31 34 33 27 33 34 37 44 46 46 46 41 42 38 38 46 41 36
24 27 29 29 29 27 23 22 21 19 20 22 26 28 29 31 31 32 31 31 32 30 28 27 26 29 31 39 45 48 42 44 35 40 47 43 36 29
26 29 27 26 24 22 21 19 18 19 21 25 27 30 32 32 32 32 32 31 33 34 27 27 25 26 31 33 35 40 39 38 44 46 43 33 26 23
28 23 20 20 20 19 19 19 20 21 24 25 30 32 32 31 31 30 30 30 32 34 35 31 25 26 28 29 35 34 36 36 39 43 41 37 25 26
22 18 18 18 19 20 21 24 26 28 28 31 31 30 31 31 32 31 29 30 31 33 34 33 32 32 34 32 17 29 32 35 39 40 41 36 28 27
17 16 18 18 19 20 23 27 30 29 31 31 30 29 30 30 31 32 31 30 32 31 33 31 29 28 32 33 40 29 34 35 35 37 38 35 25 20
15 17 18 19 20 23 27 29 29 31 31 30 29 29 29 31 32 31 30 30 31 31 33 32 26 26 29 33 36 36 30 29 29 32 36 34 24 18
18 19 19 21 23 26 28 29 28 31 30 29 29 29 29 31 31 29 28 28 27 29 31 32 28 25 24 26 25 32 33 25 20 23 28 30 29 22
20 21 21 22 25 28 29 29 30 31 29 28 29 28 28 31 31 29 28 29 29 29 28 28 27 25 23 24 29 30 31 30 21 16 16 15 24 17
21 22 22 24 27 29 28 28 30 30 28 28 28 31 29 30 30 27 27 28 27 27 25 26 26 24 23 23 24 26 27 28 31 29 20 14 14 14

GFSNE_850_spd_045.txt.gz
Wind_Speed
13 15 16 17 18 19 21 21 21 26 29 23 20 18 29 30 31 31 35 33 32 34 34 34 34 36 37 38 38 38 37 38 38 37 38 38 39 41
15 15 17 18 19 21 21 21 21 26 34 28 29 27 28 30 33 30 34 33 34 34 34 35 38 36 35 36 37 37 38 38 38 38 38 39 39 40
16 17 19 19 21 21 22 22 23 24 32 35 31 29 31 34 31 35 33 38 35 33 41 35 34 35 36 36 37 38 38 38 39 38 39 39 39 39
17 18 19 18 22 22 22 21 24 26 29 38 34 35 33 31 34 34 33 32 44 33 31 35 35 36 36 36 37 38 39 39 39 39 40 40 40 41
18 18 20 21 22 22 22 23 25 27 29 34 40 35 36 33 36 30 40 33 31 34 34 35 35 37 35 35 36 38 38 38 39 39 41 41 41 41
18 20 22 23 23 22 25 24 25 28 30 33 39 41 36 33 34 36 32 34 37 35 39 39 34 34 34 36 38 37 36 35 36 37 38 39 39 40
20 21 21 22 26 23 23 26 28 31 35 37 37 37 37 38 32 33 36 36 45 35 36 41 33 43 42 40 37 35 32 33 35 36 37 39 40 40
21 23 23 22 21 21 23 24 25 30 34 37 41 37 39 35 35 35 42 42 39 41 27 50 41 45 44 41 36 35 36 34 33 35 37 38 38 39
22 22 22 20 22 23 24 25 27 31 30 34 37 33 36 37 40 42 41 41 43 46 40 45 43 50 43 44 40 37 33 29 32 33 34 35 37 38
20 21 22 23 23 24 28 31 35 34 30 30 32 33 37 38 37 36 40 44 44 41 32 37 45 45 43 48 42 27 30 29 29 31 34 36 38 40
18 20 22 24 24 24 29 34 35 36 34 27 29 32 32 31 30 30 36 37 42 43 40 37 35 44 50 49 39 35 39 34 33 30 32 35 37 39
20 21 20 22 22 26 30 34 38 36 34 35 34 33 28 28 24 25 30 35 41 45 38 32 42 36 33 38 38 42 42 38 36 34 34 35 32 33
22 24 24 22 26 29 30 32 32 29 32 33 30 30 31 28 27 28 30 31 38 43 40 32 39 40 30 42 47 45 43 42 41 38 33 33 35 34
25 27 29 27 30 29 28 24 24 26 25 25 30 32 31 31 33 34 32 31 32 36 36 31 35 35 38 43 49 47 42 40 41 37 36 43 41 34
24 27 28 28 27 25 22 22 20 21 23 28 30 32 33 35 34 32 31 32 33 32 31 29 30 31 32 39 45 46 44 44 38 37 44 43 41 36
27 30 29 24 20 21 21 21 21 21 23 27 30 33 34 32 33 31 34 34 36 37 30 27 28 27 31 35 37 43 40 39 44 42 42 44 40 37
28 30 23 21 23 22 22 22 23 25 26 28 31 32 32 32 32 32 34 34 33 36 37 32 30 29 30 32 34 35 38 42 40 42 41 42 40 39
24 20 20 21 22 23 24 26 27 29 29 31 31 31 32 33 33 34 33 32 33 35 35 36 37 38 36 32 24 27 40 40 41 41 38 38 39 40
18 18 20 21 22 23 25 28 31 30 30 32 31 31 32 32 32 34 34 34 34 34 35 36 33 34 34 36 44 33 36 38 42 42 38 34 37 40
17 18 21 21 22 24 27 30 32 30 31 31 31 30 30 32 34 35 35 35 34 36 38 35 33 33 34 37 42 42 35 35 37 40 38 35 32 33
19 20 20 21 23 26 29 31 30 31 32 31 30 30 31 34 34 34 35 32 30 32 35 38 36 30 30 32 32 37 38 33 30 31 31 31 28 29
21 21 21 22 24 28 30 30 30 31 31 30 30 30 33 34 33 33 34 32 31 33 35 35 34 31 30 29 32 36 38 36 27 25 23 19 20 18
21 21 22 24 27 29 29 30 31 30 30 31 32 33 33 32 31 31 30 29 30 30 31 34 34 30 29 29 29 33 34 33 31 33 29 17 11 11

GFSNE_850_spd_048.txt.gz
Wind_Speed
11 13 14 15 17 17 19 21 22 25 32 33 30 26 34 35 35 37 40 39 31 34 32 33 35 34 35 38 37 35 34 33 33 33 33 34 34 34
13 14 15 17 18 19 21 22 23 26 34 35 38 37 35 33 37 35 34 33 36 32 34 34 34 38 32 33 35 36 36 35 35 34 34 34 34 35
14 16 18 19 20 21 23 24 24 25 32 39 38 34 32 33 38 33 37 36 37 34 36 34 31 32 36 34 35 36 37 37 36 36 36 35 36 36
15 17 19 20 22 23 24 24 24 27 30 36 35 33 33 39 37 36 35 40 41 32 29 31 36 33 35 35 35 35 35 35 36 37 36 36 36 37
17 18 20 22 24 25 25 25 28 30 28 32 39 38 39 37 37 39 42 38 30 35 35 35 35 34 33 35 32 33 35 36 35 35 35 36 35 36
17 19 22 23 24 25 28 28 26 29 31 35 38 41 37 35 38 38 39 34 45 42 42 36 33 37 35 33 33 33 32 32 32 31 32 33 34 35
18 20 21 23 23 22 21 23 26 28 31 34 36 39 35 37 36 33 38 45 45 43 32 43 41 41 37 35 34 32 31 31 33 34 34 33 33 35
20 20 22 24 24 20 22 22 22 26 30 36 39 37 40 37 34 36 46 45 43 37 36 49 42 41 41 40 37 34 34 31 33 34 34 34 35 36
21 21 23 24 25 25 24 24 26 28 30 33 37 37 39 39 39 44 41 40 42 46 43 45 42 47 45 43 41 38 33 27 27 29 29 30 31 33
20 20 20 23 23 23 25 27 30 35 35 32 33 35 35 37 36 36 35 40 44 44 37 37 47 48 49 48 42 30 27 28 27 29 31 31 32 33
19 20 22 21 21 21 25 31 36 38 39 36 29 29 29 30 27 30 33 37 43 43 43 39 40 47 50 47 38 34 37 31 32 28 29 30 30 31
22 22 21 20 22 23 26 32 37 39 34 32 34 33 27 29 28 26 27 33 39 44 39 37 43 38 33 40 39 43 39 34 33 33 29 29 24 29
26 27 25 24 23 25 27 30 32 28 31 33 32 30 29 29 30 31 31 31 35 38 37 33 40 39 32 44 48 46 42 38 39 33 30 26 29 31
25 26 26 26 27 26 24 24 23 24 28 28 30 31 34 35 34 32 31 29 30 35 36 31 36 37 39 44 48 47 42 38 38 35 33 35 36 36
23 24 26 26 27 22 23 21 21 23 25 27 30 32 33 33 33 32 30 31 33 33 31 29 31 32 32 39 45 46 45 42 32 36 38 39 40 39
26 29 31 25 19 21 22 21 21 23 25 26 29 32 33 33 33 32 34 35 37 38 32 30 30 29 33 36 39 42 38 38 41 41 42 42 41 37
26 27 24 22 24 22 22 22 23 26 28 26 30 33 33 33 33 32 34 37 36 40 39 34 33 32 33 34 35 35 37 40 41 43 40 42 41 39
21 22 23 23 23 23 24 26 27 28 28 29 31 31 33 34 35 36 36 35 37 39 38 39 38 38 38 34 24 28 37 38 42 40 40 40 42 40
20 20 21 22 23 23 24 28 31 29 30 31 31 32 33 33 35 38 35 36 37 37 37 38 37 37 36 38 42 29 32 38 40 42 38 37 39 39
18 20 21 21 22 24 27 30 30 30 31 30 32 32 32 34 36 35 36 36 36 37 38 36 36 35 35 38 42 41 33 34 37 40 41 36 33 31
20 20 19 20 22 25 28 29 29 31 32 33 33 33 33 34 35 35 35 34 32 34 37 38 38 33 34 30 33 39 37 31 27 30 32 34 34 33
19 20 20 21 24 26 27 29 30 30 32 33 33 34 35 35 34 34 33 33 33 34 35 38 38 35 31 29 34 36 37 36 28 24 20 21 26 22
18 20 21 23 24 25 27 29 29 30 31 33 34 35 35 34 30 29 30 30 32 33 34 35 36 32 31 31 31 32 33 34 34 32 24 19 17 15

GFSNE_850_spd_051.txt.gz
Wind_Speed
9 10 11 12 14 15 17 18 20 21 31 28 28 33 35 36 34 33 34 37 30 30 30 31 29 32 32 32 34 30 31 32 32 32 33 34 33 33
10 11 13 14 15 16 18 19 20 23 26 32 35 37 37 37 37 35 36 33 32 31 30 31 31 32 30 30 31 33 32 32 33 34 34 34 34 34
11 13 14 16 17 18 20 21 23 24 30 36 36 37 36 35 34 33 31 32 34 34 31 29 29 29 32 33 32 33 34 34 34 33 33 33 34 34
12 14 15 17 19 20 21 23 24 25 30 37 35 35 36 36 38 33 34 34 35 34 28 28 34 30 33 32 31 32 34 33 33 33 34 34 34 34
13 15 17 19 21 22 23 24 26 26 27 32 36 35 37 40 38 38 40 40 37 38 33 32 33 30 29 30 32 30 31 32 32 32 32 33 33 32
15 17 18 20 21 22 23 23 23 26 28 29 33 36 39 36 36 40 42 40 43 42 40 35 30 34 34 32 31 29 29 30 29 29 30 31 32 32
15 17 18 18 19 20 18 20 23 25 26 29 33 37 35 35 38 38 40 45 44 43 39 30 41 41 37 34 33 30 28 29 31 32 31 31 32 32
16 17 19 20 21 19 19 18 19 23 27 30 34 36 39 36 39 38 41 44 45 40 31 44 42 42 40 39 36 33 33 31 30 32 32 31 29 29
18 20 21 20 20 22 23 20 21 23 25 30 37 35 36 37 36 37 37 35 41 46 46 44 42 45 41 40 38 34 28 25 26 27 26 26 27 29
19 20 21 22 22 19 20 23 25 29 32 32 31 33 31 31 32 34 35 37 41 39 38 40 43 42 43 43 37 25 21 25 24 25 28 28 27 28
18 18 20 21 20 19 23 26 30 33 33 32 27 26 26 28 25 26 30 33 39 40 38 37 39 46 46 42 32 28 33 31 30 24 23 25 26 27
21 23 24 22 20 20 24 28 32 34 30 29 31 30 27 24 23 25 28 31 35 38 37 35 41 39 32 33 35 40 37 34 29 27 25 22 22 24
25 27 25 23 20 23 23 26 26 24 28 30 30 29 26 26 28 27 27 29 32 34 34 32 38 37 29 42 44 42 40 37 34 29 25 22 22 22
25 24 22 22 24 23 21 19 20 22 24 26 28 28 28 30 30 28 27 28 28 32 32 29 32 32 34 41 46 45 40 37 35 33 26 28 28 27
21 21 22 25 25 20 20 20 19 20 23 26 28 28 29 32 31 30 27 29 31 31 29 29 29 29 30 35 42 43 43 40 28 28 33 33 34 35
23 26 26 22 19 18 17 16 17 21 24 26 27 29 31 31 32 31 32 34 36 34 28 30 27 28 31 34 37 42 37 38 38 36 35 38 39 36
21 22 21 19 19 18 18 19 21 23 24 25 29 31 31 32 31 31 32 35 34 37 36 30 28 29 31 32 35 35 36 39 39 39 39 42 40 37
20 20 19 19 19 20 21 24 24 25 26 28 28 30 33 34 35 34 33 32 35 36 37 35 36 36 37 35 26 31 39 41 39 38 36 38 44 39
17 17 18 18 19 20 22 25 27 26 27 28 31 32 33 34 34 34 33 33 35 35 35 36 36 35 37 37 40 30 32 37 36 38 36 37 40 41
16 17 17 17 19 22 24 26 27 27 26 29 31 33 33 34 35 33 32 33 34 35 38 36 35 35 35 38 45 41 32 33 35 37 39 37 36 35
16 16 17 18 20 22 23 25 27 26 28 30 33 34 33 34 33 31 32 31 32 34 37 38 35 31 33 34 37 41 37 29 29 32 33 33 34 34
16 16 17 19 21 22 24 26 26 25 28 32 34 35 34 34 33 32 31 33 33 34 35 36 34 33 32 32 35 38 39 35 28 24 21 20 25 26
16 17 19 21 21 22 25 27 24 26 29 32 34 35 35 34 32 31 31 31 33 33 33 33 35 33 32 32 32 35 34 33 32 30 26 18 19 20

GFSNE_850_spd_054.txt.gz
Wind_Speed
12 12 12 12 13 14 15 16 18 17 27 26 27 30 33 35 36 35 34 33 32 30 29 29 28 29 31 31 32 31 30 31 31 33 34 33 34 34
12 11 12 13 14 15 16 18 19 21 23 29 32 33 34 35 34 33 32 32 29 29 30 27 29 29 28 28 29 30 32 32 32 33 34 34 34 34
10 14 14 15 16 16 17 19 21 23 29 34 33 31 33 33 34 33 33 29 31 29 28 27 27 27 29 31 29 31 31 31 32 33 33 34 34 34
11 14 15 16 16 18 19 21 22 23 28 33 32 34 33 34 35 37 31 33 33 30 29 27 28 29 29 29 28 28 30 32 33 33 33 34 34 34
15 18 17 17 18 20 21 22 24 25 25 29 34 32 34 35 38 37 39 37 35 32 31 31 30 28 26 28 29 31 31 31 31 32 32 33 32 32
15 19 18 19 19 20 21 22 22 24 26 29 30 33 35 36 38 41 40 38 36 34 36 32 25 28 32 32 32 32 31 31 31 31 30 30 32 33
16 17 18 18 19 19 20 20 22 24 25 27 30 34 37 40 41 38 39 37 38 37 37 21 38 42 36 36 34 32 29 28 29 31 33 33 32 32
14 17 18 20 21 20 19 20 19 21 25 28 31 34 39 39 37 34 34 37 40 35 34 45 39 42 40 35 34 33 31 32 32 31 32 32 32 31
15 18 19 19 20 22 21 18 18 21 23 27 32 35 36 32 30 33 34 36 38 39 41 47 40 41 36 36 37 34 30 28 28 28 28 27 27 28
16 17 18 20 21 20 18 20 22 24 26 30 32 32 29 29 30 33 36 36 38 37 35 41 39 39 40 41 38 27 20 22 23 24 26 30 31 30
17 18 21 23 22 18 19 23 27 30 30 28 25 25 26 28 28 28 30 32 39 39 34 32 37 42 45 42 32 26 33 30 29 28 27 28 28 29
20 22 23 22 18 17 21 25 29 30 24 27 29 29 26 25 23 24 28 31 33 36 31 35 38 37 31 35 32 40 37 34 31 28 27 26 26 28
23 24 22 19 17 20 20 23 23 21 26 28 27 27 26 25 23 26 26 28 31 35 33 31 38 37 34 44 43 43 41 37 34 31 27 24 24 25
21 22 21 20 21 21 20 19 19 20 22 24 26 27 27 26 27 27 25 26 27 32 34 30 34 33 36 41 46 45 41 40 37 34 26 20 24 26
20 19 21 23 22 20 18 16 17 18 21 24 26 27 28 28 27 29 27 27 29 29 28 28 30 31 31 37 44 45 44 43 33 26 33 32 30 28
22 23 22 21 18 17 15 13 16 19 22 24 26 27 27 29 30 30 32 31 34 33 26 27 28 28 33 36 38 44 41 40 39 35 35 35 32 32
20 20 19 17 16 15 15 16 19 20 22 23 25 28 31 32 32 30 31 32 33 36 36 30 27 30 32 32 37 39 38 38 37 38 38 41 38 35
19 18 17 15 16 17 20 22 21 22 23 23 26 29 32 32 33 32 31 30 33 35 36 34 36 38 36 37 29 31 37 40 41 41 38 38 41 36
16 15 15 15 16 18 20 22 24 23 22 23 27 30 32 33 32 32 32 32 34 35 36 38 38 36 37 37 39 28 33 39 39 37 35 35 38 40
13 13 14 16 18 20 20 23 24 23 22 25 29 31 33 33 34 33 33 34 35 37 39 38 35 34 34 39 46 43 33 35 36 36 36 35 37 36
13 13 14 16 19 20 21 23 24 21 24 27 29 33 32 33 34 34 34 32 33 34 38 38 35 32 33 35 37 41 36 29 28 30 32 34 34 35
13 14 15 18 20 20 22 23 23 21 25 27 32 33 33 32 33 33 33 34 35 35 37 38 36 35 35 34 37 38 39 35 29 25 22 20 24 26
14 16 17 18 20 19 22 24 22 23 26 29 32 33 35 34 31 31 33 33 34 36 36 36 36 35 34 32 33 33 34 33 32 31 25 16 16 18

GFSNE_850_spd_060.txt.gz
Wind_Speed
29 28 23 21 19 16 15 15 14 13 20 20 18 20 22 29 31 33 33 33 33 33 32 31 29 27 26 26 26 27 27 27 28 27 28 30 31 30
26 22 20 17 16 16 14 16 17 19 19 21 23 25 27 30 31 33 33 33 33 33 32 31 27 25 26 26 26 27 27 28 28 29 29 29 30 29
20 17 15 13 13 15 14 15 17 21 26 27 27 26 29 30 32 33 33 34 35 33 31 30 27 25 25 26 26 26 27 27 28 28 28 29 29 30
17 16 15 13 13 12 16 17 19 21 25 28 29 30 31 31 33 34 34 34 34 32 29 27 26 26 25 25 25 25 25 27 28 29 30 31 31 32
15 13 11 10 10 12 18 20 20 22 24 27 30 31 33 32 34 35 36 36 34 30 26 27 27 24 23 23 24 27 29 30 30 31 31 32 33 33
9 11 10 12 13 13 19 19 20 22 25 27 29 31 32 33 34 36 40 37 34 30 28 27 25 25 26 28 30 29 30 30 30 29 30 30 31 32
8 9 10 11 13 16 18 20 22 23 25 27 29 31 33 34 34 37 38 35 35 34 31 32 33 33 30 31 31 29 28 26 27 28 29 31 32 33
7 8 10 14 16 17 17 18 20 22 23 25 27 30 33 35 35 33 32 35 38 35 37 41 36 39 37 32 29 28 27 27 30 30 30 31 32 32
7 10 12 14 17 19 20 22 21 19 18 21 27 30 33 31 28 30 32 35 38 40 39 46 41 42 35 33 31 28 28 26 24 25 27 28 29 30
10 12 15 17 19 20 20 19 19 21 22 25 27 28 25 24 27 30 34 37 38 37 32 44 41 39 39 40 35 24 21 24 26 26 27 28 29 30
12 15 18 19 19 19 17 19 24 25 23 21 20 21 22 23 24 28 30 31 38 38 36 25 41 43 46 41 30 28 34 33 32 32 31 30 30 30
15 17 17 18 17 14 18 23 25 21 19 19 17 18 20 22 21 22 26 29 32 37 28 32 40 36 35 35 27 41 40 36 34 32 31 32 30 30
16 17 18 18 15 16 16 18 18 18 20 20 21 22 21 20 20 22 25 28 31 34 37 32 38 38 35 43 46 46 43 40 38 36 33 29 27 26
18 18 18 18 18 16 15 14 14 15 18 20 22 22 21 21 22 24 25 27 28 32 31 28 33 33 35 40 46 47 44 43 40 37 30 24 23 23
16 17 17 17 15 13 12 13 14 16 19 20 22 21 21 24 25 27 28 28 29 29 27 26 28 29 30 37 43 45 44 41 32 30 32 29 27 25
16 16 16 15 13 12 11 12 14 16 19 21 21 20 23 27 29 30 31 30 33 33 29 26 26 28 32 34 37 42 40 40 39 34 33 33 31 30
17 16 14 11 10 10 10 13 14 16 18 18 19 22 25 30 32 30 30 31 34 36 35 29 28 30 31 31 34 35 35 38 36 36 36 37 33 30
15 14 12 12 13 14 16 15 14 16 17 17 19 22 27 31 32 31 31 32 35 36 36 35 36 36 37 36 28 33 39 40 40 37 34 36 39 33
14 12 11 12 14 15 17 17 18 18 18 17 21 23 28 30 32 32 32 34 37 37 36 37 37 37 37 37 42 28 32 37 34 35 32 32 35 34
11 11 12 13 15 17 18 18 19 19 17 18 22 25 27 30 32 32 33 34 37 38 40 37 37 37 36 40 42 37 31 32 30 32 32 31 32 31
9 9 12 14 16 17 18 18 20 21 18 20 22 26 28 31 33 33 33 34 35 38 41 41 37 35 33 32 34 37 31 24 23 27 29 31 34 31
10 11 13 15 16 18 19 19 21 20 15 19 23 27 30 34 36 35 36 37 38 38 38 40 39 38 34 32 33 33 30 29 22 21 22 18 23 30
11 13 15 16 18 19 20 21 23 19 16 21 25 28 31 37 34 36 37 38 36 36 39 40 39 37 34 31 30 31 28 32 33 33 29 20 19 22

GFSNE_850_spd_063.txt.gz
Wind_Speed
33 33 31 27 28 26 22 21 19 15 13 12 13 16 17 20 26 30 32 33 33 33 33 32 32 29 27 27 26 27 27 27 28 27 28 28 27 29
32 30 26 26 22 20 18 17 14 18 14 12 14 19 22 26 28 30 32 33 33 32 32 31 30 27 26 26 26 26 27 27 27 28 28 28 28 28
28 27 25 24 20 17 16 16 16 17 19 20 21 21 23 25 28 30 31 32 33 33 31 31 30 25 25 25 26 27 27 27 28 28 28 28 28 28
25 23 20 18 15 15 14 15 13 14 18 21 23 23 26 26 29 30 30 31 32 32 30 28 25 25 25 25 25 25 26 26 27 29 29 31 31 31
19 16 13 12 13 14 13 13 11 15 17 22 26 25 28 28 29 31 31 32 31 27 25 24 23 22 23 24 24 25 27 29 31 32 32 32 32 32
14 13 12 12 10 12 12 12 14 17 19 23 24 25 26 28 29 30 28 28 29 26 25 23 23 25 25 23 26 27 29 30 31 31 30 30 31 31
10 9 7 7 7 10 11 12 14 16 18 21 22 23 25 21 23 25 25 23 26 28 30 29 30 31 28 29 28 27 27 27 28 28 28 29 31 31
6 5 5 6 8 9 10 11 14 15 17 20 23 22 21 23 23 21 23 25 27 28 34 34 33 34 30 27 26 26 26 28 29 29 30 31 31 30
1 2 3 6 9 10 12 13 14 14 15 17 20 21 22 22 22 25 27 26 29 34 36 38 35 33 30 32 30 29 25 23 22 24 26 27 28 29
2 3 6 9 11 14 13 14 16 17 17 19 20 19 18 19 21 23 27 29 31 33 29 32 33 34 36 37 35 23 21 21 24 25 26 27 29 30
6 8 10 12 13 12 13 17 18 17 15 14 14 15 16 17 19 23 24 26 31 34 31 24 35 39 41 37 29 28 32 30 29 29 30 29 30 30
9 11 11 12 13 9 12 16 16 14 14 12 11 12 15 16 16 18 22 26 28 32 25 28 35 33 27 29 26 39 36 35 31 30 29 29 29 31
11 12 12 12 12 13 12 13 13 13 13 14 15 15 15 14 15 18 21 26 29 31 32 27 35 35 29 39 42 42 40 38 36 33 29 25 23 23
12 12 13 13 12 11 9 9 10 11 13 15 16 15 14 14 17 20 23 25 27 30 27 24 30 30 32 38 44 44 41 38 36 31 24 26 25 23
12 11 12 11 9 8 7 8 10 12 14 15 16 15 16 18 20 24 24 25 27 25 23 22 24 25 27 34 40 42 42 38 29 29 31 28 28 27
10 10 10 9 7 7 8 9 11 12 15 17 17 17 19 21 24 26 26 27 30 28 26 23 23 25 28 31 34 39 35 36 34 31 32 31 30 28
11 10 8 5 5 6 7 9 10 12 14 16 15 18 21 24 26 25 25 27 29 32 31 25 26 27 29 29 35 34 34 36 34 33 32 34 29 26
9 8 6 6 7 8 10 10 10 12 14 14 14 19 22 25 28 28 28 27 30 31 33 33 34 34 35 32 28 33 36 37 36 33 31 33 35 30
9 7 7 8 9 11 12 14 13 14 16 15 15 19 23 26 28 33 32 29 30 31 33 35 34 33 33 34 37 25 32 31 30 29 27 29 33 31
7 7 8 9 11 13 14 15 15 16 17 15 16 20 24 26 30 33 29 32 34 34 36 33 32 31 31 36 40 35 25 28 25 28 30 31 33 31
5 6 9 11 13 14 16 16 17 18 19 16 17 21 23 27 31 33 30 32 32 34 36 36 34 30 31 33 33 35 28 22 23 26 29 32 35 35
6 7 9 12 13 16 16 17 18 18 17 15 17 22 23 28 32 34 32 36 37 37 38 37 37 34 32 31 37 37 35 30 25 25 26 24 26 33
7 9 10 12 14 16 18 19 20 20 20 18 18 21 24 31 33 33 34 37 37 36 36 39 38 34 33 32 34 37 35 34 33 34 34 32 33 30

GFSNE_850_spd_066.txt.gz
Wind_Speed
41 39 40 39 37 35 32 28 26 21 21 20 17 17 18 20 23 25 31 34 35 34 33 34 33 34 34 32 29 28 27 27 28 28 29 30 28 30
34 35 38 33 33 31 27 24 22 17 14 16 19 23 24 24 23 29 31 33 33 34 33 31 33 33 32 29 26 25 26 27 27 28 28 30 29 30
31 33 31 27 23 20 17 17 17 15 17 21 22 20 18 20 26 28 29 31 29 31 31 30 30 29 26 25 25 25 25 27 28 28 29 29 29 29
26 25 23 21 17 15 16 18 17 17 17 18 20 17 18 23 27 28 26 27 28 29 27 26 23 24 24 25 25 24 25 26 27 27 28 29 30 31
20 17 16 15 14 15 15 15 15 16 15 15 18 18 21 20 22 22 23 24 23 25 23 22 20 21 23 23 25 26 27 27 28 30 31 32 33 33
15 13 12 12 13 13 12 13 11 11 14 15 14 13 16 16 18 18 19 19 20 21 22 19 21 22 22 23 23 25 27 29 30 31 30 30 31 32
13 11 10 11 12 12 8 8 9 12 13 14 13 12 13 13 15 17 18 18 20 21 17 17 20 24 25 25 26 26 26 26 27 29 29 30 30 31
9 8 8 7 5 5 5 7 11 12 13 12 13 13 14 15 15 15 17 19 22 19 14 24 23 25 26 25 26 26 26 28 29 30 30 30 31 32
6 3 1 4 6 8 9 11 12 13 14 13 14 15 15 13 16 18 17 20 23 22 22 26 24 25 23 25 28 28 24 21 22 25 26 27 28 29
2 1 3 6 9 10 9 11 13 13 13 14 14 14 13 13 15 17 19 20 21 22 19 26 24 24 24 27 31 25 20 24 22 22 25 27 29 30
2 4 6 8 8 9 9 13 12 13 13 12 12 12 12 14 15 18 19 18 23 26 24 21 23 25 32 33 27 27 32 29 28 26 26 28 30 30
6 7 8 8 8 8 9 11 11 9 9 8 9 11 13 13 14 15 18 21 23 27 17 23 32 26 21 30 24 33 31 34 32 31 28 27 26 28
6 7 7 8 9 9 8 8 8 8 9 10 11 11 12 11 12 15 19 23 26 29 28 21 30 31 27 33 39 37 36 35 34 33 30 25 19 22
6 8 8 9 8 8 7 7 7 7 9 10 11 12 12 12 15 17 20 23 24 27 25 22 28 27 29 35 39 39 37 36 35 30 25 27 29 27
8 8 9 9 8 6 5 6 7 9 10 11 12 12 13 15 17 20 23 25 27 26 21 21 23 24 27 33 38 39 38 36 25 28 28 30 28 27
8 8 7 6 4 4 5 7 8 9 11 13 14 13 15 18 19 22 26 27 31 29 23 23 24 25 28 30 32 37 34 33 34 31 31 31 29 27
8 7 5 4 4 5 6 8 10 10 12 14 15 15 16 19 22 23 25 29 29 30 30 25 25 25 27 27 33 33 33 35 34 34 32 33 30 27
7 6 4 4 5 7 9 10 11 12 14 15 16 16 18 21 24 25 26 26 26 29 30 29 29 31 31 28 26 33 36 36 37 33 30 30 33 30
6 5 4 5 7 9 11 12 13 13 15 17 17 16 19 22 24 27 28 27 27 28 29 29 29 29 33 32 30 25 33 35 30 29 28 30 33 34
5 4 5 7 10 11 13 14 15 16 17 19 19 17 19 23 24 27 30 28 28 29 32 29 28 29 31 36 41 38 29 32 33 34 33 33 35 35
5 6 7 9 11 12 15 16 17 18 19 20 20 19 20 22 24 27 31 29 28 32 32 33 34 30 31 32 34 37 36 31 28 31 32 34 38 39
7 7 8 10 12 14 16 18 19 20 20 20 21 20 21 23 25 29 32 33 33 35 35 36 36 34 33 32 37 38 38 36 30 27 25 27 30 33
9 9 10 11 13 16 18 20 21 22 22 22 23 23 23 26 26 29 34 34 34 36 36 39 37 36 34 34 36 39 37 40 37 36 34 29 30 32

GFSNE_850_spd_069.txt.gz
Wind_Speed
36 39 43 43 40 39 43 38 27 20 21 23 21 23 23 23 26 30 30 30 32 32 31 33 34 34 35 36 34 31 29 26 25 25 26 26 27 26
36 35 36 37 38 38 32 30 25 19 16 12 15 18 21 25 26 27 29 29 28 30 31 32 33 33 33 30 28 25 24 23 24 24 25 25 27 26
30 31 30 30 30 25 22 16 14 14 12 20 18 19 22 23 24 25 24 25 28 30 30 30 31 29 27 26 25 25 24 23 24 24 25 26 26 26
25 25 24 21 17 14 11 11 9 13 15 17 17 18 20 21 18 22 24 25 27 28 28 26 25 23 25 24 24 25 24 24 24 25 25 26 26 27
18 17 16 14 9 7 6 13 11 12 13 14 15 16 16 15 17 19 22 22 22 23 23 23 22 22 22 23 23 24 24 25 26 26 27 28 28 29
12 10 10 10 9 9 10 11 10 10 11 11 10 11 13 15 17 18 17 19 24 21 22 21 20 20 22 23 23 25 25 24 24 24 25 26 27 28
9 8 9 8 8 8 8 8 8 7 7 9 11 10 12 13 11 15 20 20 22 23 19 17 19 24 25 24 26 25 23 24 24 26 26 27 28 29
6 9 8 7 7 6 4 7 8 8 9 10 12 13 11 11 14 17 18 23 25 18 18 23 24 27 25 25 24 24 25 25 26 26 26 27 27 28
6 4 2 2 2 3 5 7 9 8 9 12 13 12 14 13 17 19 18 18 22 23 22 28 27 29 27 27 26 27 25 22 21 22 24 25 25 27
3 4 3 4 5 6 6 8 9 10 10 11 12 13 12 12 13 16 18 21 22 21 19 29 27 28 30 33 30 23 20 22 21 21 22 24 26 28
1 3 5 7 7 7 7 9 9 8 10 12 10 10 10 12 14 16 16 17 22 25 23 19 27 30 34 32 27 24 29 28 28 27 25 25 26 27
6 8 7 8 9 10 9 8 10 8 8 8 8 9 10 12 12 13 14 17 20 26 16 24 30 30 25 35 33 34 31 29 29 28 27 26 26 27
7 9 10 10 11 10 9 8 8 7 6 9 8 9 11 11 12 13 15 19 22 27 28 21 31 29 28 37 39 36 33 31 32 32 29 25 22 21
9 10 11 10 10 8 6 5 5 6 7 9 10 10 12 12 13 16 18 21 23 25 24 23 29 27 30 36 41 40 37 34 32 30 23 27 24 24
10 11 10 9 7 6 4 5 6 7 8 10 11 13 14 14 16 18 19 21 24 26 24 21 24 26 28 33 39 40 38 37 25 29 28 28 27 24
10 9 9 7 6 4 4 5 7 9 10 12 13 15 16 16 17 19 23 24 27 28 22 21 21 22 27 30 34 39 36 34 35 33 32 32 30 27
10 9 7 6 4 5 6 8 9 10 11 14 15 17 18 18 19 21 23 25 26 30 28 26 25 25 28 30 35 35 35 36 36 37 37 37 33 29
9 7 6 6 6 7 8 9 11 12 13 15 17 19 20 19 21 23 23 24 28 30 29 29 29 31 32 32 27 34 35 38 38 35 32 33 36 30
8 7 6 6 7 8 10 11 12 13 15 16 18 19 20 20 22 24 25 25 30 30 30 30 30 28 32 35 32 26 36 36 34 34 34 34 36 36
8 8 7 8 9 10 11 12 14 15 16 18 19 20 21 22 23 25 26 29 31 33 34 31 30 29 32 38 43 40 30 32 34 38 40 36 36 36
9 8 9 10 11 12 13 14 15 17 18 20 20 20 21 23 24 25 28 29 29 32 34 34 33 31 35 35 38 40 40 35 34 34 36 37 37 37
10 10 11 12 13 14 14 16 17 18 19 20 21 21 21 23 26 27 28 30 34 35 34 36 37 36 37 35 39 41 42 39 35 34 30 28 31 31
11 13 13 14 15 15 16 18 19 20 20 21 22 23 24 25 25 27 28 32 34 35 36 38 38 36 38 39 33 42 40 40 39 39 36 29 30 29

GFSNE_850_spd_072.txt.gz
Wind_Speed
33 37 39 41 40 39 38 38 36 25 27 26 24 25 22 24 28 25 25 26 29 29 27 27 26 27 28 29 28 28 28 26 22 21 20 21 22 22
28 30 32 34 37 37 34 32 28 25 20 16 16 17 17 19 19 22 24 25 25 23 23 25 27 27 26 26 26 25 23 21 20 20 20 20 21 22
22 24 27 29 30 29 26 23 19 17 15 16 14 14 17 17 19 20 20 21 22 23 24 24 24 24 23 23 22 23 22 21 20 20 20 20 21 22
20 21 22 23 22 19 15 11 10 10 9 11 10 14 13 14 15 16 17 17 18 19 19 18 19 19 20 20 20 21 20 20 20 21 21 22 23 23
18 16 14 13 12 9 6 6 6 6 6 10 10 8 9 10 10 12 13 14 15 17 20 19 18 18 17 18 17 20 21 22 22 22 22 22 23 24
7 6 6 6 4 3 4 7 7 7 6 6 6 6 7 8 10 12 13 15 19 18 16 17 15 14 15 18 20 21 22 21 20 20 21 22 23 24
3 4 3 3 6 5 5 4 4 3 5 7 6 6 6 8 9 11 16 19 17 18 12 12 17 16 16 18 20 20 19 19 20 21 23 24 25 26
5 5 5 5 5 4 4 4 6 5 6 7 8 7 6 6 10 15 17 18 20 12 21 15 19 20 19 19 20 19 21 22 22 22 23 24 25 25
2 2 4 3 5 4 5 6 7 6 7 8 8 8 10 11 13 13 13 14 16 18 21 23 23 23 21 22 22 23 20 18 17 19 21 21 23 24
1 4 4 1 3 3 6 7 7 8 7 7 9 9 9 9 10 12 15 17 17 17 18 28 23 26 27 27 24 16 16 18 19 20 22 23 24 25
4 4 5 5 6 8 7 8 8 8 8 9 5 5 5 6 9 12 12 15 20 21 19 21 30 34 33 29 20 23 22 22 23 22 22 23 24 25
7 7 6 7 9 9 9 9 9 8 7 6 5 5 6 7 8 11 12 15 18 23 18 28 32 31 33 33 34 31 27 26 24 23 22 22 22 24
7 8 10 10 9 9 9 7 7 7 6 5 5 6 7 8 10 11 13 17 20 23 25 23 32 32 29 35 40 36 32 28 27 24 20 15 19 20
10 10 10 10 9 8 5 4 4 4 4 5 6 8 9 10 11 12 13 16 18 22 22 22 27 28 30 36 41 38 34 31 28 23 21 22 21 22
9 9 9 8 7 5 3 2 4 5 6 7 8 10 11 13 13 13 14 17 20 21 20 20 22 24 25 31 38 41 39 37 24 28 26 24 25 21
11 10 8 6 5 3 3 4 5 7 8 9 11 12 13 14 14 14 17 20 22 22 21 21 20 22 27 30 33 39 36 33 35 33 34 33 26 24
10 8 6 6 5 4 5 6 8 9 10 12 13 14 15 16 16 15 17 21 22 25 27 25 23 22 24 26 32 32 34 35 34 36 36 36 33 30
8 7 6 6 5 6 7 9 10 11 12 13 14 16 17 19 19 18 19 21 23 26 28 29 30 30 30 30 25 31 34 36 37 35 33 34 37 32
9 8 7 7 7 8 10 11 11 12 13 14 15 17 18 18 19 20 21 22 25 27 28 30 31 28 32 35 34 25 34 36 33 35 35 35 38 35
9 8 8 8 9 10 11 11 11 12 14 15 16 17 17 18 19 20 21 23 25 27 29 31 28 25 29 35 42 40 31 35 34 38 37 35 36 34
10 9 8 9 10 12 12 13 13 14 16 16 17 18 18 19 22 22 23 23 24 26 31 32 27 26 30 33 35 39 40 34 32 35 35 37 37 37
10 9 10 12 13 14 14 15 15 16 17 17 18 18 19 20 22 23 24 26 27 30 32 31 31 31 32 31 38 42 45 41 32 31 30 30 31 32
11 12 13 14 14 16 16 17 18 18 19 19 20 20 22 23 22 23 25 27 30 31 31 34 34 32 38 37 38 38 46 40 39 39 36 30 30 29

GFSNE_850_spd_075.txt.gz
Wind_Speed
25 26 29 32 36 37 35 35 34 27 29 33 32 31 31 33 31 32 33 26 24 23 21 25 25 23 24 24 24 23 23 22 20 18 17 17 17 18
20 22 24 25 26 27 27 29 27 28 27 21 20 24 20 21 26 25 23 20 17 20 20 21 23 22 23 23 24 22 20 18 18 17 17 17 18 17
15 18 21 24 25 25 24 23 21 19 20 20 19 18 17 15 17 15 15 15 18 20 19 20 20 21 20 19 18 17 17 17 16 17 17 18 18 18
14 16 18 20 20 18 18 16 13 12 12 12 13 13 11 11 10 11 14 16 16 16 17 16 16 17 17 16 16 16 16 16 17 17 18 18 19 19
13 14 15 14 12 9 7 6 6 7 7 8 8 8 7 9 10 9 11 12 13 13 13 14 15 15 16 14 13 15 18 19 19 19 19 19 19 20
7 6 6 5 5 4 3 6 6 6 6 4 8 9 8 9 10 9 9 10 12 13 12 13 10 11 12 13 16 18 18 18 18 17 16 18 20 20
1 2 2 3 4 4 5 5 6 5 4 5 10 8 8 7 8 9 10 12 13 10 7 8 9 10 10 14 16 16 15 15 16 17 19 20 21 22
3 1 1 3 5 7 7 7 4 3 5 7 9 8 8 7 8 10 12 13 11 7 12 9 10 10 11 13 14 15 16 17 17 18 19 20 21 22
3 1 2 3 5 6 3 2 3 6 7 7 8 9 9 10 10 10 9 10 12 12 13 15 13 12 15 16 17 15 10 11 13 15 17 18 20 21
1 1 2 3 4 3 5 6 7 6 6 7 8 9 9 9 8 9 10 11 11 12 13 20 16 19 19 19 13 7 12 13 14 17 20 21 20 22
3 4 4 5 5 7 6 7 7 7 8 9 7 5 6 6 8 9 9 11 13 14 10 17 24 27 26 19 9 15 17 18 20 19 20 22 23 21
6 6 6 7 9 9 8 8 8 7 7 7 6 6 6 7 8 9 10 11 14 14 10 23 26 27 25 21 28 22 22 17 18 19 19 19 20 21
8 8 8 8 8 9 9 6 6 6 6 5 5 6 7 8 9 11 11 13 15 17 18 19 25 25 24 33 33 30 27 24 21 19 16 12 17 21
8 9 9 9 8 8 6 4 4 4 4 5 7 7 8 9 11 11 11 13 16 18 18 17 21 22 24 30 35 34 32 27 26 18 16 19 17 19
7 8 7 7 6 5 3 3 4 4 6 7 8 9 10 11 11 13 13 15 16 16 15 16 18 20 21 26 33 34 34 34 20 25 23 23 23 20
9 8 7 6 4 4 3 4 5 6 8 9 10 11 12 12 13 14 16 16 19 16 15 15 16 18 23 25 27 33 31 28 31 28 28 28 25 23
8 7 6 6 5 5 5 6 7 9 10 12 13 12 13 14 15 15 16 17 20 22 22 21 19 20 22 23 27 28 29 30 29 31 32 31 30 28
8 7 7 7 6 6 7 8 10 11 11 12 12 13 14 15 15 14 15 16 19 22 23 22 22 25 27 26 22 28 29 32 32 32 32 34 35 30
8 8 8 7 7 8 9 10 10 10 11 12 13 14 15 14 14 15 16 19 21 22 22 22 24 23 26 30 32 25 31 31 31 32 30 31 34 33
9 9 8 8 9 9 11 11 11 11 12 13 14 14 15 16 16 17 18 20 22 23 26 26 25 21 24 30 37 36 25 31 32 36 35 31 32 31
10 9 9 9 10 12 12 13 13 12 13 14 15 14 14 16 18 20 20 20 21 23 27 28 23 19 23 28 33 38 36 30 29 31 37 35 34 34
10 10 10 11 12 13 15 16 15 14 14 15 15 16 16 17 20 21 20 22 23 26 29 27 25 25 26 28 33 37 41 38 34 33 31 27 28 30
12 13 13 14 14 15 17 18 18 17 16 17 17 18 18 20 20 21 21 23 25 28 27 28 29 28 31 33 34 38 40 41 39 39 34 26 27 29

GFSNE_850_spd_078.txt.gz
Wind_Speed
20 22 23 22 24 24 27 29 32 27 28 28 28 25 28 28 30 33 34 31 28 28 26 25 21 21 21 20 18 19 19 19 20 18 17 17 18 18
20 21 22 21 22 21 23 21 22 24 26 23 20 21 21 22 26 32 29 24 24 22 20 19 19 20 19 21 23 21 21 18 17 17 16 17 18 17
16 16 16 17 17 20 21 21 20 19 20 21 18 16 17 18 18 19 18 17 17 18 18 17 16 17 19 18 18 18 17 16 17 16 16 17 18 18
12 11 11 13 15 18 19 17 15 14 13 14 12 8 9 10 12 13 12 13 13 13 12 13 15 16 18 18 18 18 16 16 16 16 17 17 18 19
7 8 10 11 11 11 12 11 10 10 10 9 9 7 8 10 11 11 10 11 12 11 12 15 15 15 15 14 14 15 17 19 20 20 20 19 19 19
4 6 5 5 5 5 6 7 7 7 8 8 9 8 9 8 8 9 9 11 11 12 13 11 10 10 11 13 15 17 18 19 19 19 19 19 19 20
1 1 1 1 3 4 4 5 7 8 8 7 7 6 7 8 9 10 9 10 11 10 8 6 9 10 12 14 16 17 17 18 19 20 20 20 21 21
2 1 1 1 2 3 5 7 7 6 6 7 8 8 10 10 10 10 11 11 6 6 9 5 11 10 13 13 14 16 18 19 19 20 21 20 20 21
2 1 2 3 4 6 6 6 6 6 6 7 9 10 10 11 11 10 9 9 9 7 13 9 9 9 13 15 17 17 14 11 14 18 18 21 22 22
2 3 3 4 6 6 6 7 7 8 9 10 9 10 10 11 10 9 9 10 10 8 10 17 10 13 15 15 13 8 9 15 20 20 22 24 26 26
4 5 6 7 8 8 8 8 9 9 10 11 9 8 8 7 8 9 9 11 12 10 13 11 16 19 18 11 4 5 14 15 16 17 20 23 25 26
6 7 8 8 9 9 8 8 8 9 9 9 8 8 7 8 9 11 12 13 13 12 7 16 19 20 15 11 15 17 16 12 17 18 20 22 23 24
6 7 8 8 8 9 9 7 6 7 7 7 7 7 8 10 11 12 13 15 16 17 13 16 21 20 18 26 26 24 20 19 18 19 19 18 16 20
6 7 7 7 6 6 6 5 5 5 5 6 7 8 10 11 13 14 16 17 18 17 14 15 19 19 20 26 30 28 28 23 22 16 16 18 17 19
7 7 7 7 7 6 5 5 6 6 7 8 10 11 12 13 14 16 16 17 18 16 14 14 17 18 20 23 29 32 31 30 18 23 18 19 20 19
8 7 7 6 6 6 6 6 7 8 9 10 11 13 14 14 14 15 16 16 18 16 13 15 17 19 22 23 25 31 27 26 28 24 24 24 23 21
7 8 7 7 7 7 7 8 9 10 12 13 14 14 14 14 14 14 14 14 16 18 17 14 14 17 20 23 27 26 24 27 26 26 27 28 25 25
8 8 8 8 8 8 8 9 11 13 13 13 13 14 14 14 14 12 13 15 18 19 21 18 17 21 22 24 20 23 27 27 28 27 26 30 32 27
9 9 9 9 9 9 10 11 13 13 13 13 14 14 14 14 14 14 15 18 19 20 19 18 18 22 24 29 29 21 24 31 27 27 27 28 32 29
9 9 10 10 10 11 12 13 14 14 14 15 14 14 14 16 16 16 17 20 21 20 21 20 21 21 21 26 31 33 25 26 26 30 31 30 30 28
11 10 10 11 12 13 14 16 16 16 16 16 15 15 14 17 18 18 20 20 20 21 24 23 22 19 21 24 31 34 31 26 26 30 34 34 33 31
12 12 13 13 14 15 17 18 19 18 18 18 17 16 17 18 19 20 21 22 22 23 25 25 23 21 23 25 32 36 36 34 32 30 31 30 27 28
14 15 15 15 16 18 20 20 21 21 20 20 19 19 19 20 20 21 22 22 23 25 25 26 25 24 27 29 31 34 35 37 37 39 40 33 28 25

GFSNE_850_spd_081.txt.gz
Wind_Speed
24 22 21 22 25 23 23 24 23 24 24 22 19 21 21 19 20 20 19 22 23 23 26 23 22 24 24 26 25 25 20 18 18 19 17 16 16 16
21 20 22 22 22 20 20 21 21 22 20 18 21 19 18 16 18 20 18 21 24 24 24 21 21 21 23 21 19 18 18 17 16 15 15 16 16 17
17 16 16 17 14 14 14 16 18 19 18 19 19 17 16 13 16 19 21 22 22 21 19 19 19 19 18 17 17 18 18 16 14 14 15 15 16 15
13 11 12 11 11 12 13 13 14 13 14 14 14 14 12 12 13 14 16 16 15 16 17 16 17 17 18 18 19 17 15 14 14 15 15 16 16 15
7 8 8 7 8 10 9 8 8 8 8 9 10 9 9 10 11 12 13 12 12 13 13 14 14 17 17 16 16 15 15 16 17 18 18 19 19 18
7 7 6 5 4 3 3 4 6 7 7 7 7 7 8 9 9 9 9 11 13 13 14 15 16 14 13 13 15 15 16 17 18 18 18 19 18 17
4 3 2 2 2 2 3 5 6 7 8 8 7 7 7 7 8 10 12 12 13 14 15 14 12 13 13 14 15 16 16 16 17 19 20 19 18 18
3 1 0 1 2 3 5 6 7 7 8 8 8 7 8 9 10 11 11 13 12 10 10 9 14 13 14 15 16 17 18 19 20 21 22 21 19 19
2 1 2 4 5 6 6 6 7 8 7 7 8 9 10 11 12 13 13 12 10 10 13 10 11 12 14 16 19 20 19 19 18 18 20 24 24 24
2 3 4 5 7 7 8 8 9 9 10 10 9 9 10 11 11 12 10 10 10 11 13 14 12 13 15 18 20 17 12 11 15 22 22 23 25 27
4 5 6 8 9 8 9 9 9 9 10 11 10 9 9 9 7 9 8 11 12 10 13 17 13 19 18 12 9 5 9 17 17 20 22 24 26 27
5 6 7 8 9 9 9 8 8 9 9 9 9 8 7 7 8 9 11 12 14 13 10 14 18 18 12 5 3 16 17 12 16 19 20 22 25 26
5 6 8 8 8 8 8 7 7 6 7 7 7 7 7 9 10 11 13 15 17 18 16 18 20 18 17 23 23 23 19 22 19 17 19 19 17 20
5 6 7 7 7 8 7 7 7 6 6 6 6 7 9 11 13 14 16 18 19 19 18 16 21 20 20 25 29 26 27 27 23 18 12 21 20 20
6 6 7 6 7 7 7 7 6 7 7 8 9 11 12 14 15 16 17 18 20 19 19 18 20 20 22 26 32 31 32 29 20 18 22 21 22 22
7 7 8 7 7 7 7 8 8 9 10 11 12 13 14 15 15 16 17 17 19 15 11 13 17 22 25 27 29 32 29 29 26 23 24 25 23 22
7 8 8 8 8 9 9 9 10 11 13 14 15 15 15 15 15 14 15 16 17 17 15 11 13 16 21 25 29 29 27 24 23 24 27 29 26 23
8 9 10 10 10 11 11 11 12 14 14 15 15 15 15 15 15 12 14 16 18 18 19 17 16 19 22 24 21 20 23 22 24 25 26 28 30 26
10 10 11 11 12 12 13 13 14 15 16 16 16 15 15 16 15 15 14 17 19 20 19 17 15 18 24 28 29 22 19 27 27 27 26 26 30 29
11 11 12 13 13 14 14 16 17 17 17 18 17 16 16 17 17 16 16 19 21 22 21 17 16 19 23 25 28 30 24 26 26 28 27 27 30 30
13 13 14 15 16 16 16 18 19 20 20 20 19 18 18 19 19 18 19 20 21 23 25 23 19 19 22 23 29 31 27 25 25 25 28 29 33 35
15 16 16 17 17 17 19 20 21 22 22 22 22 21 20 19 21 21 22 23 23 24 26 25 22 20 22 25 29 31 32 30 25 26 26 27 28 29
16 17 17 18 18 20 21 22 23 24 23 23 23 22 21 22 22 23 24 23 24 25 25 27 25 22 24 26 28 31 33 32 33 34 34 31 30 28

GFSNE_850_spd_084.txt.gz
Wind_Speed
23 24 22 22 23 23 21 21 23 16 15 19 18 19 19 16 17 16 14 13 16 18 20 20 22 22 23 27 29 29 27 25 23 19 15 15 14 12
24 20 20 21 23 22 23 20 20 17 19 18 17 18 17 16 14 14 15 14 15 17 19 21 22 22 21 21 20 19 18 16 14 13 12 12 14 13
20 19 19 19 18 16 15 14 13 13 15 16 17 15 13 11 11 14 15 15 17 17 20 19 18 18 18 18 16 16 16 15 13 11 12 12 13 13
16 15 15 14 12 9 9 11 13 12 13 14 13 11 9 9 10 12 14 15 13 13 14 14 16 18 18 17 16 16 16 14 12 10 11 13 14 13
12 10 10 8 7 7 8 7 7 8 9 9 9 9 8 8 8 10 11 13 12 13 13 13 13 14 15 16 15 14 11 11 11 12 14 15 16 16
7 7 4 3 5 5 4 4 5 6 6 6 7 7 7 7 9 9 9 10 11 11 13 15 16 16 15 12 12 12 12 12 13 14 15 16 16 15
7 5 4 5 6 5 3 4 5 6 7 6 6 6 7 7 8 8 9 10 11 13 14 16 14 12 12 13 13 13 13 13 14 16 18 19 17 16
5 4 4 3 3 2 2 4 5 6 7 7 7 7 7 8 9 10 11 12 11 12 11 8 13 12 13 14 15 14 14 16 18 20 21 19 17 17
4 3 2 2 2 3 4 5 6 7 7 7 7 8 9 10 10 11 11 12 10 10 12 9 10 11 13 15 16 17 19 19 18 17 18 19 22 25
2 1 1 3 3 4 6 7 8 8 8 8 8 8 9 9 10 11 10 9 8 9 11 12 11 13 12 16 19 18 15 11 10 16 22 24 24 24
1 2 3 4 6 5 7 7 7 7 8 9 9 8 7 8 9 7 5 7 8 9 13 14 12 15 15 14 10 5 4 10 19 19 21 24 25 25
2 3 4 5 6 6 6 6 6 6 6 7 7 7 6 6 6 7 8 9 11 10 9 13 16 17 11 9 5 6 14 18 11 20 20 21 23 24
3 3 5 6 6 6 5 5 5 4 5 5 5 5 5 6 8 9 11 12 14 15 14 17 20 20 17 21 20 17 18 18 20 17 17 18 16 20
3 4 5 6 5 5 5 6 5 4 5 5 5 5 7 9 11 13 14 16 17 17 16 16 20 21 21 25 28 23 27 26 23 18 7 16 19 19
4 4 4 5 5 5 6 5 5 6 6 6 7 9 10 12 13 15 16 16 18 16 14 14 17 19 20 24 30 29 29 27 21 18 20 20 22 22
4 4 5 5 5 6 6 7 7 8 8 8 10 12 14 14 14 14 15 15 16 11 10 12 15 19 21 22 25 30 27 30 26 20 21 23 22 21
5 6 6 7 7 7 8 8 9 10 11 12 13 14 14 14 14 13 13 14 16 15 13 10 15 21 22 23 27 27 27 24 21 21 23 26 23 22
5 6 8 9 9 10 10 11 11 12 13 14 16 15 15 15 15 14 13 14 16 16 17 17 17 19 22 23 22 22 23 22 18 23 23 28 29 23
7 8 9 10 10 11 12 13 13 14 15 16 17 16 16 16 16 15 14 15 17 18 18 18 17 17 21 27 30 22 19 24 25 23 23 25 28 27
9 10 11 12 12 13 14 14 14 15 17 18 18 19 18 18 19 17 16 18 19 20 20 16 16 17 21 25 30 30 24 25 24 25 25 24 25 25
11 11 12 13 14 15 15 16 17 17 18 19 20 20 20 21 21 20 20 19 21 22 25 22 17 18 21 25 29 31 28 25 23 24 25 27 28 30
13 14 14 15 16 17 18 18 19 19 19 20 21 22 21 22 22 22 21 22 22 23 25 24 20 20 22 23 28 30 30 26 23 23 21 21 24 27
15 16 15 16 17 18 19 20 20 20 20 21 21 22 22 23 23 23 23 24 25 26 26 26 25 24 24 25 27 30 30 30 29 28 24 25 29 28

GFSNE_850_spd_087.txt.gz
Wind_Speed
17 17 19 24 23 20 20 18 18 14 15 14 13 12 14 13 15 15 13 12 13 16 18 19 23 24 24 23 22 25 27 28 26 21 17 13 10 9
21 23 25 23 20 19 19 19 17 14 14 14 12 12 12 13 14 14 13 10 10 14 17 19 20 21 19 18 17 18 17 17 16 13 11 10 9 11
23 26 21 19 18 17 16 15 14 14 11 12 11 11 12 13 12 12 11 10 12 14 16 17 18 15 15 16 15 16 17 16 14 11 9 9 9 10
23 21 17 16 15 15 14 14 14 12 11 11 10 10 10 10 10 9 9 10 10 12 13 13 14 14 15 16 15 15 14 14 13 10 10 10 12 11
17 16 14 13 12 11 11 8 6 6 7 7 7 7 7 6 6 7 9 11 12 11 12 14 13 12 12 12 14 14 12 9 9 10 11 12 13 13
14 12 10 8 7 6 4 4 4 5 5 5 6 6 6 6 7 8 9 9 11 12 13 14 14 14 15 13 9 8 8 9 10 11 12 13 14 13
9 8 7 7 6 5 4 5 5 6 6 5 4 5 6 7 7 8 9 9 11 12 13 15 14 13 11 9 9 9 9 10 10 12 14 15 16 16
8 7 6 5 3 4 5 5 5 5 5 4 5 6 6 7 8 9 10 10 10 12 11 9 10 9 9 9 10 10 10 11 14 16 17 17 17 16
8 7 5 4 4 5 5 4 4 5 5 5 5 6 7 8 9 9 9 9 9 10 9 7 7 8 9 11 12 12 14 16 17 16 16 17 18 20
7 5 5 4 5 4 4 5 5 5 5 5 5 5 6 6 7 7 8 7 6 7 7 7 7 8 9 12 13 15 15 14 12 11 16 19 20 22
5 5 5 4 4 4 3 4 4 5 4 4 4 4 5 5 4 4 4 5 6 8 10 8 9 11 12 11 10 10 4 5 10 15 17 17 22 25
5 4 3 3 3 2 2 2 2 3 2 3 3 3 3 4 4 4 5 7 9 8 7 11 14 13 8 8 5 7 10 13 16 14 21 22 22 24
5 4 3 2 2 2 2 1 1 2 1 2 2 2 3 4 5 6 8 10 11 12 13 14 15 15 12 14 15 14 18 13 17 18 19 20 19 19
5 4 3 2 2 1 1 2 2 2 2 2 3 3 5 7 8 10 11 12 13 13 12 13 16 17 17 20 20 16 20 19 17 16 10 10 19 20
4 3 2 2 3 2 2 2 2 3 3 4 5 6 7 9 11 12 12 13 14 12 12 12 14 15 16 18 23 23 23 22 17 12 21 17 17 18
3 3 3 3 3 3 3 3 4 5 5 6 7 8 10 12 11 11 12 13 13 9 9 12 16 18 20 20 22 24 20 22 21 20 19 20 19 21
4 5 5 4 4 4 4 5 6 6 7 8 8 10 12 12 11 11 11 13 13 13 10 10 16 20 22 23 25 22 21 20 21 19 19 23 21 22
7 7 6 5 5 5 5 6 7 8 9 9 10 12 13 13 13 12 12 13 14 14 14 15 16 19 21 23 20 18 20 19 16 20 21 24 23 21
8 8 7 6 6 6 7 7 8 10 10 11 12 13 14 15 15 14 14 14 15 16 16 16 17 18 22 25 28 21 18 21 23 23 21 23 27 23
9 10 9 8 8 8 9 9 10 11 12 13 14 14 15 16 16 17 17 17 18 19 19 16 15 17 21 24 29 30 23 23 23 25 23 24 25 23
12 12 11 11 10 10 10 11 11 12 13 14 15 15 16 17 17 18 19 19 19 20 22 20 17 18 21 24 28 31 29 24 23 24 23 25 28 27
14 14 13 13 12 12 13 13 13 14 14 15 16 17 17 19 19 19 20 20 19 20 22 22 20 19 21 24 27 29 30 27 23 21 21 20 22 24
16 16 15 15 14 14 14 14 15 15 15 16 17 17 18 20 19 20 21 20 21 22 23 23 22 22 23 25 25 28 29 29 27 26 23 19 19 23

GFSNE_850_spd_090.txt.gz
Wind_Speed
22 22 22 20 21 21 23 20 17 12 10 15 15 14 14 14 11 11 13 14 13 15 18 20 21 22 23 22 25 28 26 23 23 22 21 18 12 7
22 21 21 21 23 23 20 18 18 18 17 15 15 15 14 10 10 11 13 13 12 11 13 16 19 21 21 25 25 23 19 16 16 16 17 12 8 9
22 22 21 23 24 20 19 17 16 15 15 16 13 13 11 11 12 13 13 12 12 12 13 15 18 21 22 19 16 16 15 16 16 16 14 9 11 13
22 22 25 23 20 17 15 14 14 14 13 13 12 11 11 12 12 12 11 11 11 12 14 14 15 16 16 15 16 16 15 15 15 16 14 11 11 13
23 23 20 19 17 14 12 11 10 9 9 10 10 10 9 9 7 7 8 10 12 12 11 13 14 15 15 14 14 14 14 13 12 11 11 11 11 12
20 19 17 15 11 9 8 7 6 7 6 7 8 8 8 8 7 8 9 10 11 11 12 13 13 14 14 14 12 11 10 10 10 11 11 12 12 12
16 14 12 10 9 8 8 7 7 7 7 8 8 8 7 7 7 8 8 9 12 12 13 15 13 14 13 11 9 9 10 10 11 12 12 14 14 16
12 11 11 9 9 10 10 8 8 7 8 8 7 7 8 7 8 9 9 9 5 11 10 10 12 10 9 9 9 10 11 11 12 14 16 17 18 17
12 10 10 9 8 8 7 6 6 7 8 7 7 8 7 7 8 7 8 8 8 10 8 6 6 7 9 10 11 12 13 14 17 16 15 15 14 16
12 11 9 8 7 7 6 6 6 7 6 6 6 6 6 5 5 5 5 5 4 5 4 5 7 8 10 12 13 14 15 16 15 13 11 14 18 18
10 9 8 7 7 7 7 6 6 5 4 4 4 4 4 3 4 3 2 2 3 6 7 6 8 11 11 12 13 13 11 8 7 12 16 20 18 22
10 9 9 8 7 7 6 5 5 4 4 3 3 3 3 3 3 3 4 4 5 5 5 9 11 12 7 10 10 8 9 12 17 19 19 21 23 22
10 9 8 7 6 6 5 5 5 5 4 4 4 4 4 4 5 5 6 8 9 8 12 12 13 13 10 13 14 14 16 17 17 20 22 22 21 22
10 9 8 6 6 6 5 5 5 5 4 5 5 6 6 7 7 9 10 11 12 11 11 12 14 13 14 16 17 13 15 15 15 17 19 13 16 22
9 9 8 7 5 5 5 5 6 6 6 7 7 8 8 9 10 11 11 12 11 10 11 11 12 12 14 16 20 20 21 20 17 9 17 20 20 19
9 8 8 7 7 6 6 6 7 7 7 8 9 10 10 11 11 11 11 12 12 10 9 11 13 15 16 18 21 22 19 19 19 18 20 22 20 19
9 9 9 8 8 8 8 8 8 9 9 10 10 11 11 12 12 12 12 13 14 13 10 11 14 17 19 20 23 20 20 18 18 20 18 21 22 21
11 11 10 10 10 10 10 10 10 10 10 11 12 12 13 13 13 13 14 14 15 15 14 14 15 16 19 21 18 14 17 19 16 18 21 23 24 21
14 13 13 12 12 12 12 11 11 11 12 12 13 13 14 15 15 15 15 16 17 17 17 16 17 17 19 19 19 21 14 20 21 22 21 22 25 23
16 15 14 14 14 14 14 13 12 13 13 13 14 15 15 16 17 16 16 16 17 18 19 18 17 16 19 21 24 27 25 20 22 23 23 23 25 25
18 17 16 16 16 16 15 15 14 14 14 15 15 16 16 17 18 18 18 19 19 19 20 19 17 19 21 24 26 27 27 27 24 21 24 25 26 26
20 20 19 18 18 17 17 17 17 15 15 16 16 17 17 19 19 19 19 19 19 20 20 19 20 21 22 24 26 27 26 27 27 24 21 21 22 25
22 22 21 20 20 20 20 19 19 17 16 17 17 17 19 19 19 20 20 20 20 20 20 20 20 20 22 24 25 27 27 26 26 26 22 19 20 22

GFSNE_850_spd_096.txt.gz
Wind_Speed
26 25 25 25 23 23 20 19 18 17 15 20 22 22 18 16 15 15 13 10 10 11 10 12 12 12 13 16 18 18 20 22 21 20 19 16 16 15
24 24 23 27 23 20 21 21 19 19 19 19 22 19 17 18 16 14 13 11 12 12 13 14 12 13 16 19 19 21 20 18 19 16 14 16 16 16
21 22 24 24 24 20 22 21 20 22 21 21 21 20 19 17 13 9 11 12 11 12 11 11 11 10 13 13 15 17 17 16 15 16 17 16 16 16
20 22 24 27 22 20 22 21 23 21 19 19 20 18 17 14 11 9 12 13 10 10 10 10 11 12 13 13 14 15 16 16 17 16 16 15 14 14
18 19 20 23 20 20 24 20 18 16 16 16 17 16 13 13 10 9 10 8 7 8 10 10 11 11 12 12 13 14 15 15 16 16 15 12 9 7
19 20 20 22 21 22 20 17 15 15 15 14 13 12 12 11 10 9 10 8 7 9 9 9 11 11 11 12 13 13 13 13 12 10 9 8 8 8
20 21 21 21 20 19 16 15 14 13 13 12 11 10 10 11 11 10 11 10 9 10 10 10 10 9 10 10 9 7 7 7 7 8 9 9 9 9
18 18 20 19 18 17 14 13 12 13 13 12 11 11 11 11 11 11 11 11 10 9 7 7 7 6 5 4 3 4 6 8 9 10 11 11 12 13
17 17 15 13 13 12 13 14 14 15 14 13 12 12 11 11 10 11 10 10 12 6 6 5 4 4 4 5 5 7 9 10 11 13 13 13 15 14
15 14 13 13 12 13 12 13 13 12 13 12 12 11 10 10 10 10 10 9 8 6 5 5 5 5 7 9 9 10 11 10 11 12 13 13 12 10
13 13 13 13 13 13 12 12 12 12 12 11 10 11 10 10 10 9 9 8 8 6 5 7 7 6 9 11 12 10 10 9 9 8 9 10 12 15
15 13 13 12 12 12 12 13 11 11 10 10 9 9 9 9 8 8 7 8 7 6 6 7 7 8 6 8 7 6 10 11 12 12 15 18 18 18
13 13 14 11 11 11 12 12 11 10 10 9 9 9 9 9 7 7 7 7 7 10 11 10 11 11 9 12 11 11 11 10 11 12 15 18 19 19
13 13 12 10 11 11 11 11 10 9 10 10 10 9 8 8 7 7 8 9 9 11 13 12 13 13 14 14 13 10 9 12 14 14 16 19 20 18
14 13 11 11 10 10 10 10 11 11 11 10 9 8 8 7 8 9 9 10 11 11 12 13 13 13 14 15 16 15 15 12 12 8 11 17 19 19
14 13 12 11 11 11 11 11 11 12 11 10 10 9 8 9 9 10 11 12 11 11 12 12 12 14 15 16 18 17 16 15 15 15 16 17 18 16
12 12 12 12 12 11 12 12 13 13 12 11 11 9 10 10 11 12 12 13 12 12 11 12 12 14 16 17 20 17 15 15 13 16 16 18 19 18
13 12 13 13 13 13 13 13 13 13 12 12 12 12 12 12 12 13 13 13 13 13 12 12 13 15 17 18 17 15 14 14 13 13 18 22 21 19
17 15 15 15 14 14 14 14 13 13 14 14 13 13 14 14 14 14 14 14 15 15 14 13 14 15 17 20 20 16 16 14 17 18 17 19 24 23
21 18 17 16 15 15 15 14 14 15 16 15 15 15 15 15 16 15 14 16 15 16 16 14 14 15 17 19 21 19 17 20 21 23 20 19 21 22
21 19 17 17 17 16 15 16 16 17 17 18 17 17 17 17 17 16 15 16 17 17 17 15 14 16 16 18 23 22 20 19 20 22 23 24 23 23
23 22 20 19 18 18 18 19 19 19 20 20 19 19 19 19 18 17 18 17 17 18 19 17 16 17 18 21 24 24 21 18 16 17 18 20 21 23
26 23 22 21 20 21 21 22 22 22 22 22 21 21 21 21 19 18 20 19 19 19 19 18 17 19 20 21 23 25 24 23 21 19 16 14 16 19

GFSNE_850_spd_099.txt.gz
Wind_Speed
30 28 29 28 27 26 24 24 26 17 19 21 21 23 19 18 15 15 13 11 11 11 10 8 8 10 12 13 16 18 19 19 18 18 18 17 14 14
25 24 26 27 27 24 23 24 24 27 19 20 22 23 19 17 19 17 16 14 12 11 11 11 12 12 12 14 16 18 19 20 19 17 15 12 14 15
21 22 23 25 25 21 19 24 21 22 24 23 23 21 19 17 19 14 12 11 11 11 10 10 11 12 12 13 14 15 16 17 16 13 13 14 15 14
17 18 19 24 20 21 18 21 21 21 23 24 22 20 19 17 15 12 11 11 10 11 11 10 10 11 12 13 13 14 14 14 14 14 14 14 13 12
17 16 19 20 21 20 22 21 21 23 22 21 20 20 18 16 14 13 11 9 9 8 8 8 9 10 11 12 12 13 12 13 14 14 14 12 10 7
17 17 20 20 20 21 19 21 22 21 20 19 18 17 17 16 15 13 12 10 10 9 8 8 9 11 12 11 12 13 13 13 12 11 8 6 6 6
19 20 21 22 22 24 24 23 20 20 19 18 18 17 16 16 15 13 13 11 10 9 8 9 9 10 10 9 9 8 8 7 6 6 6 7 7 8
20 20 21 22 23 23 23 21 19 18 17 17 15 14 14 14 14 13 14 12 9 8 8 7 7 8 7 6 5 5 6 6 7 8 9 9 9 10
19 18 19 19 20 19 19 19 19 17 16 14 13 13 14 13 12 13 13 12 10 9 7 7 7 6 6 5 5 6 7 8 9 10 11 11 12 12
18 18 18 16 15 15 14 15 16 16 16 15 14 12 11 12 11 11 12 12 9 9 8 7 7 6 7 7 7 7 8 8 9 10 11 12 11 11
15 15 14 14 16 15 14 14 15 16 15 14 14 13 11 12 11 10 10 11 9 8 8 7 7 7 8 9 10 9 7 8 8 8 9 9 9 11
14 14 15 15 15 14 14 14 15 14 13 12 14 10 11 11 11 9 8 8 7 7 9 7 5 5 5 7 7 6 7 10 11 12 13 13 15 17
14 14 14 13 13 13 14 14 13 13 13 12 11 10 10 10 9 9 9 8 8 8 8 8 7 7 8 8 9 10 10 10 10 11 13 15 16 17
12 12 13 12 13 14 13 13 14 13 14 13 12 12 11 10 9 9 9 8 9 10 11 10 11 11 11 10 9 8 7 10 11 13 14 16 18 17
12 13 13 13 12 13 13 12 13 13 14 14 13 12 10 10 10 9 9 9 10 11 12 13 12 12 13 12 12 9 9 8 12 11 11 14 17 18
14 14 14 14 13 13 13 14 14 14 13 13 13 12 11 11 10 10 9 9 10 11 13 13 13 13 13 14 15 12 10 9 11 13 15 14 15 14
13 14 15 15 15 14 14 15 14 15 16 15 14 11 11 11 10 10 9 9 10 11 11 12 13 14 15 15 16 13 12 11 11 13 15 15 14 15
15 15 15 15 15 15 15 15 15 16 16 15 14 12 12 11 11 11 10 11 11 10 10 11 13 14 16 14 13 10 10 11 12 13 13 19 19 16
19 17 16 16 15 16 16 16 16 15 15 16 15 14 13 13 13 12 12 11 10 10 10 10 11 12 14 17 15 13 12 9 13 15 17 18 23 18
22 17 17 17 17 17 17 17 16 17 18 17 17 16 15 15 15 14 13 12 12 12 13 11 10 10 13 15 18 15 13 15 16 21 21 20 21 21
23 21 18 18 18 17 17 18 18 18 18 19 18 18 17 18 17 16 15 15 15 16 15 12 10 14 15 17 20 17 15 16 17 20 20 22 22 22
24 23 21 19 19 19 19 19 20 20 21 20 19 19 19 19 19 18 18 18 18 17 17 13 13 15 17 18 21 21 19 17 16 18 18 17 20 22
26 24 22 21 20 21 21 22 23 23 23 21 21 20 20 21 20 21 20 20 20 19 18 17 16 18 18 19 21 23 21 19 19 19 16 13 17 20

GFSNE_850_spd_102.txt.gz
Wind_Speed
30 32 33 35 33 29 27 26 25 24 25 27 25 22 20 17 17 17 13 11 12 14 14 12 10 9 10 13 12 13 15 17 17 19 19 16 15 13
29 30 31 32 31 29 26 28 29 28 26 22 25 20 20 17 18 16 17 16 15 15 14 12 12 11 11 12 14 15 16 16 17 18 17 14 13 13
23 23 24 27 26 26 27 25 25 27 24 22 22 19 20 19 18 18 18 12 12 13 14 13 12 13 14 14 15 15 17 17 17 16 14 13 13 13
23 23 23 22 22 20 21 26 22 23 26 24 23 22 22 19 17 17 16 11 12 12 12 12 13 13 13 13 13 13 12 13 12 12 13 12 11 12
23 22 21 19 18 19 20 21 21 22 21 20 22 22 21 19 19 17 14 13 13 13 12 9 10 11 12 13 12 12 12 11 11 11 11 11 10 9
21 20 17 18 19 19 20 21 23 22 20 22 24 21 19 20 18 16 15 15 13 11 11 11 11 12 12 13 13 13 12 12 11 10 8 7 6 5
20 20 20 20 22 22 21 21 21 23 24 23 21 19 20 20 20 17 16 14 14 13 12 12 12 12 12 11 11 10 9 8 7 5 5 6 6 7
21 21 21 22 23 25 25 24 24 23 21 19 19 19 18 18 17 17 16 17 15 13 13 12 12 11 10 9 8 7 6 6 6 7 8 8 9 9
23 23 21 21 22 23 23 23 23 22 20 16 15 13 15 15 15 16 16 15 15 11 10 10 11 9 9 8 7 7 7 8 9 10 11 11 11 11
21 21 19 19 20 20 18 15 15 16 16 15 14 13 14 14 15 13 12 14 16 13 13 11 11 10 9 9 9 9 9 10 11 11 12 12 12 13
18 17 16 16 15 15 14 14 14 15 15 15 15 15 15 14 15 14 15 14 16 13 12 10 11 11 10 10 11 10 10 10 11 10 10 10 10 11
15 15 14 14 14 14 13 12 12 13 12 12 13 13 13 14 14 13 13 13 14 11 12 11 10 9 7 11 11 9 8 9 11 12 12 12 13 15
14 14 13 13 14 14 13 13 13 13 13 13 13 13 13 13 13 13 13 13 12 11 8 10 9 10 10 7 8 10 11 12 12 12 12 13 14 16
13 13 12 13 12 13 12 12 14 14 14 13 13 13 12 12 11 12 12 12 11 11 12 11 12 11 11 10 11 11 11 11 13 14 15 16 17 18
11 12 12 13 12 13 13 13 15 13 15 15 14 13 11 12 12 12 12 11 12 12 12 11 12 12 12 12 12 11 11 12 14 15 17 16 16 17
12 13 14 15 15 14 14 15 15 13 13 13 14 14 14 13 13 13 12 12 12 12 12 12 12 12 13 13 13 11 12 11 10 13 17 18 18 17
14 15 16 17 17 16 16 15 15 15 16 16 16 15 14 15 14 14 13 13 12 11 11 11 12 13 13 14 14 11 13 14 15 17 17 17 17 17
15 17 17 16 16 16 16 15 16 16 16 16 16 15 15 15 15 15 14 12 11 10 10 10 12 13 14 12 12 10 11 11 13 16 17 19 17 15
19 20 18 17 15 15 15 16 16 15 14 17 17 17 16 17 19 17 15 14 12 11 10 10 11 12 13 14 12 12 11 11 11 13 16 19 22 18
20 23 19 17 17 16 16 16 16 17 19 20 20 20 20 20 20 19 18 16 14 13 12 11 11 12 12 14 15 11 11 12 13 16 18 18 19 19
26 25 19 17 17 17 18 18 18 19 20 21 22 22 22 22 22 21 20 20 19 18 16 12 10 15 15 17 19 14 10 13 16 18 18 19 20 22
27 23 22 20 19 19 19 20 21 22 24 24 24 24 24 24 25 23 23 23 22 20 17 14 16 17 18 19 19 19 17 14 14 16 18 18 20 22
26 27 25 23 21 21 21 22 24 24 25 25 25 25 24 26 25 26 25 24 24 23 21 19 18 20 20 19 20 20 20 18 18 19 16 15 18 21

GFSNE_850_spd_105.txt.gz
Wind_Speed
22 26 29 29 31 32 30 29 30 27 24 25 25 24 24 20 19 16 16 14 14 14 15 17 15 11 8 8 11 10 10 10 11 11 14 16 16 14
26 27 28 28 30 30 29 29 27 26 26 23 24 21 22 21 17 16 18 18 18 18 17 17 13 14 12 11 11 13 13 16 18 17 17 17 15 13
23 24 24 24 23 22 22 22 23 23 27 24 19 21 20 20 18 17 17 18 16 15 17 16 15 15 14 13 14 15 16 17 17 18 18 16 14 12
23 24 24 24 22 19 21 20 24 24 24 24 22 18 21 22 17 16 16 18 14 13 12 13 13 13 14 14 14 15 15 15 14 15 15 13 12 12
22 22 22 24 21 19 17 16 21 20 21 22 22 23 18 19 18 18 17 16 14 14 14 14 13 13 14 14 14 13 14 13 13 13 12 12 12 11
21 22 22 20 18 17 19 19 19 21 19 20 21 20 20 19 20 19 18 17 16 15 13 12 12 12 13 13 13 13 13 13 13 13 13 12 10 8
21 22 22 21 19 19 21 20 18 17 19 19 21 23 23 23 23 21 19 17 16 14 13 13 13 13 13 13 13 14 13 13 11 10 8 7 7 6
23 24 24 23 21 21 23 24 24 23 24 25 25 24 22 20 20 21 19 20 18 15 15 15 14 14 13 11 12 12 10 9 9 8 8 7 7 9
23 24 23 22 21 21 22 22 24 24 24 24 21 19 18 17 18 20 20 17 16 13 12 16 14 13 12 11 10 9 9 9 9 9 9 9 10 11
21 23 22 20 19 19 20 20 19 18 18 17 18 16 15 15 15 14 13 16 17 15 14 13 12 13 12 11 10 10 11 10 10 11 11 12 13 13
17 19 19 17 17 16 16 15 14 13 13 13 15 15 15 14 15 16 18 19 18 16 15 14 13 14 13 12 12 13 12 12 12 11 12 12 13 13
16 14 15 16 15 15 14 13 12 12 12 12 14 14 14 15 16 16 15 17 17 14 15 15 12 13 10 14 14 14 13 13 11 11 12 13 13 14
15 13 13 14 14 15 14 12 11 12 12 12 12 12 13 14 15 15 16 16 16 15 9 16 13 13 13 5 8 11 12 12 14 14 15 15 15 15
16 14 13 12 14 12 13 11 13 14 14 14 13 13 13 13 14 14 15 15 15 14 12 11 12 12 13 12 12 13 14 15 16 15 16 16 17 17
16 15 15 11 12 13 13 12 14 14 14 14 13 11 11 13 13 13 14 14 13 13 13 13 13 13 13 13 14 14 14 15 17 18 18 18 18 18
18 14 11 13 15 15 15 14 16 14 13 13 12 13 14 14 14 14 14 13 13 12 12 13 13 13 13 14 14 14 15 14 12 15 18 17 17 18
18 15 15 16 16 17 16 16 15 16 16 13 14 15 15 15 15 15 14 14 13 12 12 10 11 12 12 14 13 13 16 18 18 19 21 20 18 18
20 18 16 15 17 17 17 16 16 16 15 14 15 16 16 16 16 16 16 14 13 12 11 12 13 13 13 12 12 12 15 15 16 18 18 20 18 16
22 19 17 17 18 17 16 16 16 15 15 16 17 17 17 17 19 19 17 16 14 13 13 15 15 14 14 13 12 12 13 14 15 16 16 18 21 15
23 21 20 21 17 18 17 16 15 15 18 18 19 20 21 20 21 21 21 17 16 16 16 18 16 14 14 14 14 12 11 12 14 16 17 19 20 20
22 24 24 22 18 16 16 16 17 18 18 20 21 22 22 23 23 23 22 20 20 21 21 20 13 16 18 18 19 12 10 14 16 18 18 20 20 20
21 23 25 24 20 19 18 18 20 20 21 21 22 22 23 24 25 25 24 24 25 23 22 18 19 22 22 21 20 19 16 14 17 20 20 19 20 19
20 22 25 25 23 22 22 22 22 22 23 23 23 24 24 25 25 25 26 26 26 26 25 23 22 25 25 24 23 23 21 19 17 20 19 19 21 22

GFSNE_850_spd_111.txt.gz
Wind_Speed
11 11 15 15 16 16 18 18 18 20 20 19 21 21 22 24 24 19 21 17 17 15 16 16 19 21 18 14 10 6 12 20 35 29 20 13 9 9
13 14 14 14 14 15 15 17 18 17 21 21 22 21 22 21 20 21 22 20 17 15 16 17 20 22 18 14 12 13 14 22 21 17 12 9 10 9
10 12 13 14 14 14 15 15 16 16 22 23 23 21 13 17 20 22 21 17 20 16 17 20 19 20 19 15 15 15 14 13 10 10 10 12 9 10
10 11 13 13 13 14 15 15 16 13 20 22 22 22 23 15 19 21 20 20 21 19 18 21 15 17 19 15 16 16 14 14 15 16 13 12 12 13
9 10 12 14 15 16 17 17 16 13 16 18 19 20 20 21 21 20 22 23 20 21 16 19 14 15 15 15 18 17 16 14 13 13 13 13 13 13
10 11 13 15 17 18 19 18 17 16 15 19 20 21 23 24 21 22 21 21 23 21 16 16 15 15 14 15 16 17 16 15 15 15 15 14 14 14
12 14 16 17 19 20 20 19 19 18 16 17 18 17 17 17 18 19 21 22 21 20 18 15 16 16 15 14 15 16 16 15 16 16 16 16 15 15
14 15 17 18 18 18 18 20 20 18 18 20 20 20 19 19 19 18 21 23 23 22 20 18 16 17 15 15 15 17 16 17 17 17 16 15 12 12
15 16 17 17 17 16 17 21 16 17 18 20 21 21 21 20 19 19 20 20 21 19 14 15 18 18 16 16 16 17 15 15 16 15 14 13 12 12
16 16 15 16 17 17 14 11 15 16 17 19 19 20 21 20 19 17 14 17 21 20 17 17 15 18 17 17 16 15 13 14 14 13 13 13 13 13
14 14 15 15 15 16 12 10 11 14 13 12 12 12 13 16 17 16 17 18 20 20 19 17 16 15 16 17 16 14 14 14 14 14 14 14 14 15
14 12 13 14 12 11 13 10 10 11 12 11 11 11 12 13 14 15 15 17 20 18 19 19 17 13 13 17 17 16 15 15 15 15 15 14 16 15
14 14 14 13 12 10 13 12 11 11 12 11 10 9 9 10 11 13 14 17 18 18 12 14 17 17 15 6 18 18 17 16 16 15 15 14 14 13
16 14 15 15 13 11 12 12 13 11 10 11 10 10 10 10 11 12 13 15 17 18 17 15 13 15 17 16 8 13 16 16 16 15 15 16 16 15
16 15 16 17 12 11 11 9 11 10 10 10 10 11 12 12 11 11 13 14 16 16 16 16 13 14 14 17 15 12 12 14 15 16 17 17 16 16
17 17 17 16 13 11 10 11 11 11 11 11 12 12 13 12 11 11 11 12 13 14 15 15 15 15 15 15 16 14 13 10 10 15 17 17 17 17
17 16 16 16 15 13 12 12 12 12 12 11 12 13 12 12 11 12 12 12 13 12 13 14 15 15 16 17 16 15 15 15 15 17 17 17 16 16
16 17 16 16 14 13 13 12 12 12 12 12 13 13 13 12 13 13 13 13 14 13 14 14 15 15 16 15 14 14 13 14 15 16 16 17 15 16
15 17 17 15 12 13 13 13 12 12 13 13 13 13 13 14 15 14 15 16 16 15 14 15 15 15 15 14 13 13 14 15 16 15 14 14 13 13
15 16 15 16 14 14 14 13 12 12 13 13 13 12 13 15 16 16 17 16 16 16 17 18 17 15 14 14 15 14 14 15 14 14 13 14 15 13
14 15 15 15 13 14 16 16 15 14 14 14 14 14 14 16 18 17 17 17 17 19 21 20 11 14 17 19 20 17 16 16 16 15 14 16 17 18
15 15 15 14 16 16 16 18 19 18 17 17 16 15 16 17 18 18 19 20 21 21 20 18 18 22 23 24 21 18 18 18 18 19 19 17 18 16
15 15 15 16 16 16 17 19 21 21 20 19 19 18 18 19 18 19 20 20 22 23 23 23 22 25 26 26 25 25 24 22 22 22 22 20 20 20

GFSNE_850_spd_114.txt.gz
Wind_Speed
13 13 13 13 15 15 15 16 14 12 14 12 15 16 16 17 19 14 14 13 20 20 19 17 15 17 20 20 18 17 8 15 23 33 34 27 20 13
14 14 15 14 13 13 14 14 15 17 15 14 18 20 19 19 21 17 16 16 15 22 20 18 16 18 20 19 13 9 8 13 23 33 29 23 16 10
13 12 12 12 13 12 12 13 15 16 19 21 23 20 18 18 18 18 20 18 19 20 21 20 18 18 17 16 13 14 15 10 15 17 14 12 9 10
11 10 9 9 10 12 12 14 15 16 19 20 21 20 19 20 21 21 19 21 22 20 21 20 20 17 17 15 13 16 14 13 11 9 9 10 10 8
9 9 10 11 12 13 14 16 17 16 17 19 19 20 18 20 18 22 24 22 23 22 21 20 16 16 14 15 14 17 14 12 12 12 14 12 11 11
11 11 11 13 14 16 17 18 19 18 17 19 20 20 21 20 21 23 23 24 22 21 20 19 15 14 14 13 13 16 17 15 14 14 13 13 12 10
11 12 12 15 17 18 19 18 19 19 19 21 21 19 19 19 20 19 22 21 20 20 20 19 16 14 15 15 15 16 17 17 16 15 14 13 12 13
11 12 15 17 18 19 18 17 19 19 21 23 21 21 18 17 16 15 16 19 21 21 21 20 18 16 17 15 15 16 17 17 16 16 16 16 15 16
12 14 17 18 18 18 17 19 19 18 17 20 21 19 20 19 19 19 18 19 20 20 16 18 17 18 18 17 16 16 16 16 16 17 16 15 14 14
14 14 16 16 18 17 17 17 17 15 13 16 19 20 22 21 20 19 17 16 18 20 20 17 15 16 18 18 17 17 16 15 15 14 14 14 14 14
14 15 15 16 17 17 16 14 13 14 13 13 13 13 14 14 15 16 17 18 19 19 18 19 17 18 17 19 19 18 16 15 14 14 13 14 14 14
13 13 15 15 14 12 13 12 12 13 12 11 11 12 12 13 13 14 16 16 17 18 17 18 18 15 13 18 18 18 15 15 15 15 14 15 15 15
11 11 13 14 13 14 14 13 13 12 12 11 10 11 11 11 11 13 14 15 16 17 13 12 19 19 18 7 16 19 17 16 16 15 15 16 16 15
12 12 9 13 15 14 15 14 13 13 12 11 10 12 12 12 11 11 13 14 16 18 18 18 15 14 18 17 10 14 18 17 17 16 16 16 16 15
11 13 15 14 15 15 13 12 12 12 12 11 11 12 13 13 12 12 13 14 16 17 19 19 17 15 15 17 16 12 10 16 17 17 16 16 16 17
11 13 14 15 16 15 13 12 12 13 13 12 13 14 14 13 13 13 13 13 15 16 17 17 17 17 16 15 16 15 12 10 12 16 16 17 17 17
14 15 14 15 17 16 15 13 14 14 13 13 14 14 14 13 13 13 14 13 14 14 15 15 16 16 17 16 16 16 15 15 15 14 14 14 14 15
14 14 13 15 16 15 15 14 15 14 13 14 15 15 14 13 13 13 14 14 14 14 14 14 15 15 16 16 17 17 16 16 14 14 14 14 14 15
15 15 14 14 14 14 15 16 16 14 14 15 15 14 14 14 14 14 15 16 16 16 16 16 16 15 15 16 14 15 16 14 13 14 14 14 13 13
17 16 15 14 13 15 17 17 16 16 15 16 15 14 14 15 15 15 16 16 16 17 18 19 17 15 16 16 15 14 15 15 14 15 15 15 14 13
19 18 16 15 15 15 15 15 18 18 17 16 15 14 14 15 15 15 16 17 17 19 21 20 14 15 17 17 18 18 17 15 16 16 17 17 17 16
18 18 17 18 18 17 18 18 19 20 21 20 18 17 16 16 17 16 17 18 20 20 20 18 18 20 21 21 20 19 20 18 18 19 21 21 20 15
19 19 19 18 17 18 17 19 19 19 21 22 21 19 18 19 18 18 19 20 20 20 21 20 22 22 25 25 24 24 26 25 23 25 26 23 23 21

GFSNE_850_spd_117.txt.gz
Wind_Speed
15 15 16 16 16 16 18 16 15 12 14 11 13 17 14 15 15 16 16 13 12 13 17 18 22 18 17 18 20 17 15 13 13 20 27 32 24 18
14 15 17 17 17 17 16 16 16 16 14 17 16 23 24 22 19 16 17 15 12 17 19 22 20 18 16 16 18 13 10 4 9 17 24 31 24 24
16 16 16 16 15 16 16 15 15 14 17 19 22 23 21 20 19 19 19 17 16 17 20 20 19 18 16 17 17 10 7 3 22 23 26 29 25 17
16 15 17 17 15 15 14 13 14 15 18 21 22 21 20 20 20 19 19 18 18 18 19 21 19 18 15 16 17 10 10 12 11 9 12 13 11 8
17 17 17 15 15 14 14 15 15 17 18 22 22 24 21 19 20 20 20 19 20 20 20 20 20 17 15 14 12 11 12 13 11 11 12 11 9 8
16 15 15 14 15 15 16 18 19 19 20 21 22 23 24 23 22 19 18 20 20 21 20 19 17 16 14 13 12 9 15 14 14 13 14 13 10 9
14 14 15 15 16 17 19 20 22 21 19 19 20 23 23 23 22 20 17 18 20 20 19 17 17 16 15 14 13 11 15 16 16 15 15 14 13 12
14 15 16 17 19 20 21 20 19 19 19 20 22 22 20 22 22 20 16 14 15 17 18 18 18 18 17 14 14 14 16 16 15 17 16 15 14 14
15 16 17 18 19 20 20 19 19 19 20 19 19 17 20 21 21 21 18 17 16 17 15 16 18 18 18 16 15 14 14 16 16 17 17 16 16 15
13 15 17 18 18 18 18 18 17 18 18 17 17 16 17 20 22 22 19 18 17 17 18 18 17 16 16 16 16 15 14 15 15 16 16 15 16 15
13 14 14 15 17 17 17 17 16 15 15 15 14 15 16 16 16 16 16 17 19 19 19 18 17 16 15 15 15 17 16 15 16 16 15 15 15 15
10 11 11 13 15 15 15 15 14 15 14 13 14 13 15 14 14 13 15 17 16 16 17 17 17 13 10 16 17 16 17 16 16 15 15 15 15 14
7 9 11 12 12 12 12 13 15 15 14 14 15 14 14 13 13 13 13 16 16 17 12 11 14 15 17 12 7 16 17 16 15 15 15 15 15 15
12 11 12 14 15 13 15 14 14 15 15 16 16 13 14 15 14 13 13 14 15 16 17 15 14 12 13 17 14 9 17 17 17 16 16 16 16 15
16 15 13 13 16 16 16 17 15 14 14 16 15 14 14 14 13 13 14 14 15 15 16 16 16 15 15 14 16 14 8 16 18 18 16 15 15 16
17 15 15 17 17 15 17 18 16 13 15 17 16 15 14 13 13 13 14 15 16 16 17 16 16 17 18 16 15 15 12 9 13 18 17 17 17 16
18 17 17 17 17 16 17 17 17 15 16 17 17 16 15 13 13 13 15 15 15 15 15 15 16 17 17 16 16 15 15 14 13 10 13 15 15 15
19 19 19 13 15 16 16 17 17 17 17 18 16 15 14 14 14 14 14 15 15 14 14 12 13 14 15 16 17 17 17 16 16 14 14 14 13 13
19 18 17 13 14 15 16 17 17 17 17 17 16 15 14 14 15 15 14 14 15 15 15 14 13 14 15 16 15 15 18 17 16 15 14 12 10 12
20 19 17 16 16 16 15 16 17 18 17 16 17 15 14 15 15 15 15 14 14 15 16 17 16 15 15 17 14 12 12 14 16 15 15 14 15 14
21 22 19 18 19 18 17 16 16 15 16 17 17 16 15 16 15 15 14 14 14 16 18 18 12 14 16 17 19 16 15 14 14 16 16 17 15 16
22 23 21 20 19 19 19 18 18 18 17 18 19 20 18 18 17 16 15 15 16 17 16 15 16 17 20 20 19 18 16 16 16 18 20 20 17 13
21 22 21 21 21 21 21 20 18 18 18 18 20 21 22 21 19 18 17 17 17 18 17 17 18 20 22 22 22 21 21 21 20 21 24 21 21 22

GFSNE_850_spd_120.txt.gz
Wind_Speed
20 17 18 18 17 16 15 14 14 12 13 7 8 14 16 16 19 18 17 16 15 14 11 13 16 19 19 18 17 15 22 19 17 19 24 23 27 27
18 16 16 15 15 17 16 15 14 13 17 14 14 17 21 23 20 16 15 13 13 14 15 18 19 20 21 17 17 15 17 13 10 5 16 24 28 22
19 17 17 16 16 15 15 14 15 14 15 18 19 19 19 20 19 18 16 15 14 15 15 19 21 22 21 18 15 17 12 4 5 12 17 28 25 28
20 19 18 16 15 16 15 15 14 14 16 17 18 18 20 19 18 17 14 15 16 17 16 16 18 19 17 18 14 14 9 8 8 9 18 24 28 23
22 20 18 16 16 16 15 14 15 16 17 17 19 21 20 18 18 18 18 17 17 18 18 19 17 18 16 14 13 11 10 9 12 13 15 19 14 10
21 19 19 18 17 16 15 16 16 17 19 20 21 21 22 20 18 17 18 16 16 17 16 18 17 17 14 13 10 11 9 11 12 13 16 15 13 10
20 19 18 17 16 15 16 17 18 20 21 20 19 19 19 19 17 16 17 16 16 17 16 17 17 16 15 13 12 11 10 14 16 16 17 16 14 11
21 19 17 17 16 16 18 19 21 21 22 21 20 19 17 17 14 13 15 16 14 12 14 14 15 16 15 15 14 13 12 15 18 19 18 19 17 14
19 18 17 17 17 20 21 22 22 20 21 20 19 17 16 15 14 14 15 16 14 17 14 13 14 15 16 17 16 14 14 15 18 19 20 21 18 17
17 16 16 17 18 19 20 20 20 19 19 18 17 16 15 13 12 11 14 17 17 17 16 17 18 17 17 17 16 15 15 16 16 17 18 18 18 18
16 15 15 16 17 18 18 18 18 18 17 15 13 13 14 14 13 11 10 12 14 16 17 18 18 17 16 16 16 15 16 17 17 17 17 16 18 18
15 14 14 13 11 11 12 15 16 16 16 14 13 12 12 12 14 12 12 12 13 13 14 16 18 16 11 14 16 18 18 17 18 18 17 17 16 18
16 14 12 11 10 10 11 12 12 13 15 13 12 12 12 12 12 14 12 12 13 14 14 12 14 15 15 13 14 11 16 17 18 18 17 16 16 16
17 16 15 14 13 12 14 15 13 14 14 13 12 11 12 12 13 14 14 13 13 14 15 16 17 14 13 14 17 17 15 15 18 17 17 17 17 16
20 19 18 17 14 14 16 15 15 15 15 12 10 10 11 12 14 12 13 14 15 15 15 16 17 18 16 16 17 14 17 15 17 17 16 17 18 17
25 25 22 19 17 16 15 14 16 16 16 14 12 11 9 12 14 12 12 14 16 16 16 16 18 19 19 18 18 16 14 10 10 19 17 18 17 17
24 24 22 21 18 16 13 15 15 15 16 14 14 14 13 13 12 12 13 15 16 15 13 15 16 18 19 18 19 17 16 15 13 8 17 19 17 17
23 22 22 21 20 17 15 14 15 16 16 13 15 16 15 13 12 12 13 15 15 14 14 12 13 15 16 17 18 18 17 16 15 14 14 13 15 15
24 22 23 21 18 18 18 15 16 15 15 15 15 15 15 13 13 13 14 14 14 14 14 14 13 13 14 16 13 12 17 17 16 18 16 16 13 12
26 25 22 18 18 16 16 17 16 15 17 17 16 15 16 15 14 13 13 13 12 13 15 15 15 13 15 15 14 12 14 14 17 18 16 16 15 15
24 25 23 20 21 20 18 17 18 17 16 14 15 17 17 16 14 13 12 13 13 14 15 14 9 12 15 17 20 17 14 13 12 16 17 17 16 16
26 26 25 24 25 24 21 21 20 20 18 16 14 16 18 18 17 15 14 14 14 14 13 11 12 14 16 18 18 17 15 14 15 16 17 17 17 17
27 26 26 25 24 24 25 24 24 23 20 18 18 17 17 18 19 17 16 16 15 15 14 13 13 16 18 19 18 17 18 17 17 18 19 17 16 19

GFSNE_850_spd_123.txt.gz
Wind_Speed
13 9 10 11 11 11 12 11 10 8 6 7 6 9 12 14 16 17 16 13 11 11 11 10 14 16 14 17 19 16 18 18 19 22 23 23 24 25
9 9 11 14 12 12 14 14 13 11 10 10 12 13 18 20 19 18 16 14 12 11 11 14 16 18 18 20 20 18 16 18 20 19 15 18 23 26
17 17 15 14 14 15 15 14 12 11 12 12 15 17 19 19 19 17 16 14 11 9 13 16 19 20 21 21 19 15 14 12 16 18 12 13 18 26
17 27 21 18 17 16 15 13 12 11 12 13 15 17 20 20 19 18 18 16 15 11 13 16 19 18 17 16 15 13 11 9 6 7 9 23 31 33
25 25 22 19 19 17 14 12 12 14 14 15 18 18 19 19 18 18 19 20 18 17 13 17 17 18 18 16 15 13 8 8 9 12 13 8 11 3
36 32 29 21 19 16 14 15 15 15 16 16 18 18 18 17 18 19 18 18 16 16 16 17 17 17 16 16 14 10 8 7 9 13 16 15 13 10
27 25 22 20 17 15 15 16 16 17 17 18 18 17 16 16 17 17 17 15 13 15 17 17 18 20 19 16 13 11 10 7 9 11 14 15 16 13
23 22 21 18 18 17 17 17 18 18 19 20 19 20 19 18 17 14 14 12 14 12 13 14 17 18 16 15 13 12 11 10 9 14 18 18 16 15
22 21 21 20 18 18 18 19 19 19 20 20 20 19 19 18 16 13 11 13 15 14 15 16 16 16 16 16 15 15 14 12 10 14 19 19 19 17
20 20 20 19 19 18 18 19 19 20 20 20 20 19 18 17 15 13 12 12 13 16 16 17 17 17 16 17 16 16 15 14 12 15 18 18 20 22
21 21 19 17 17 17 16 17 18 19 20 20 19 18 16 14 13 13 13 14 13 14 14 14 18 18 16 15 14 15 16 15 14 16 16 17 18 19
21 19 18 17 16 15 13 13 13 15 17 18 17 16 15 14 13 13 13 13 13 15 14 12 15 15 12 15 14 14 16 15 16 17 18 17 18 19
21 20 19 17 15 12 12 11 13 13 13 15 16 15 15 14 14 14 13 12 13 16 14 13 12 11 13 12 8 10 12 12 16 17 18 17 17 19
23 21 19 17 15 14 13 13 15 16 15 14 14 14 14 14 14 14 14 14 14 14 16 15 15 16 16 15 13 12 14 14 14 17 17 17 18 17
23 22 21 20 19 17 16 16 17 16 15 15 12 12 12 14 13 13 14 15 15 15 16 16 15 15 17 17 17 14 14 11 14 13 17 18 17 18
28 27 26 25 23 21 21 19 17 15 15 14 13 13 12 13 12 12 12 16 15 15 15 15 15 16 18 19 19 18 14 9 5 11 18 18 18 18
27 29 30 31 30 26 23 20 16 16 15 14 15 16 14 12 12 12 13 14 15 14 13 13 14 16 18 19 21 19 15 13 12 12 13 18 19 18
25 29 31 32 31 25 23 20 18 16 14 15 17 16 17 13 13 13 13 14 14 13 13 13 13 14 17 19 19 17 16 13 12 15 14 12 19 19
25 29 29 30 28 25 22 20 18 14 15 16 14 17 16 15 15 13 12 13 12 12 12 14 13 14 15 17 15 10 12 13 14 15 15 16 14 11
26 28 27 27 25 23 20 17 14 13 14 15 16 16 18 17 16 13 12 11 10 12 14 13 14 14 15 16 14 10 9 10 12 16 17 17 17 17
23 24 26 25 25 24 22 20 17 16 14 15 15 15 15 18 17 14 13 11 13 14 15 12 8 12 14 17 19 13 11 12 11 12 15 19 18 19
25 26 26 25 24 24 22 21 21 21 18 18 17 15 14 15 18 16 16 14 15 15 13 10 12 15 17 18 16 13 12 12 13 14 14 17 17 13
22 25 27 27 25 24 23 22 23 24 23 22 21 19 18 17 17 17 18 18 18 17 15 13 14 17 16 17 16 14 15 14 13 16 17 16 16 18

GFSNE_850_spd_126.txt.gz
Wind_Speed
28 23 19 15 13 8 15 15 11 9 12 11 11 10 10 11 14 15 15 15 13 15 15 9 9 13 15 16 14 19 21 21 21 23 22 25 21 21
27 22 18 17 11 9 17 15 11 13 12 13 12 13 13 16 17 15 16 15 15 14 13 11 12 12 15 17 18 20 22 21 19 23 28 24 19 17
25 20 17 19 9 11 13 13 12 14 14 16 16 16 16 16 16 17 17 17 16 15 14 13 14 16 18 18 19 20 19 16 16 20 18 8 7 12
27 20 19 15 8 13 13 16 15 15 16 14 14 15 15 16 17 17 17 17 17 15 15 16 16 17 17 18 17 15 15 13 13 11 12 9 8 14
23 21 22 20 18 19 19 18 17 16 15 13 14 15 16 17 17 16 16 16 17 17 16 16 16 16 16 16 15 15 13 11 7 8 10 4 5 19
27 25 26 24 26 25 21 20 19 16 15 15 16 17 18 17 18 17 16 16 15 15 13 13 15 16 17 15 14 12 14 10 8 6 8 16 13 10
27 26 27 30 32 25 26 23 21 17 16 17 19 19 19 18 17 18 18 16 13 12 12 13 16 16 15 16 17 17 14 12 11 9 9 16 15 15
35 28 30 27 26 25 26 23 19 17 17 19 19 20 18 18 18 16 15 15 11 10 10 12 13 15 17 18 15 14 13 11 13 12 9 12 16 14
42 33 23 25 23 24 23 21 19 19 19 20 21 19 18 16 16 14 14 13 11 10 13 13 14 15 14 16 16 14 14 13 15 15 12 14 16 14
28 23 20 23 26 23 20 19 19 19 20 20 19 17 16 16 14 13 14 13 12 11 12 16 14 14 15 15 15 16 16 16 16 16 14 14 18 17
16 19 22 22 21 19 18 19 19 18 18 17 17 16 15 15 14 14 13 13 12 11 11 13 13 15 16 15 15 16 17 17 16 16 15 16 18 19
19 19 18 19 19 20 19 18 16 14 13 13 14 15 15 14 13 14 14 13 12 11 10 11 14 12 10 15 15 17 17 16 15 16 15 17 16 17
19 20 21 21 23 20 17 14 13 12 12 12 13 14 15 15 14 14 14 13 13 13 12 12 14 12 11 12 10 9 11 12 13 14 17 18 18 18
19 19 20 23 22 20 18 17 15 14 13 14 14 14 14 14 14 14 14 14 16 16 17 17 19 17 14 16 15 14 12 12 13 14 16 18 19 19
22 22 22 24 22 22 21 19 18 17 16 15 14 14 14 14 14 14 14 15 16 17 17 17 18 18 17 18 17 15 13 12 11 13 13 17 19 19
22 24 25 26 25 24 24 23 22 20 18 16 14 15 16 13 14 14 15 16 17 17 17 17 17 19 19 20 19 19 16 11 6 10 15 17 20 20
18 22 26 27 28 29 29 26 25 24 21 17 16 15 16 15 16 16 15 16 17 16 15 16 17 17 18 20 21 20 16 15 14 15 16 13 19 19
21 23 25 28 30 32 32 30 27 27 22 18 19 17 17 17 17 18 17 17 17 17 15 15 16 17 15 18 17 16 16 16 15 16 16 14 16 20
19 22 25 26 28 31 31 30 28 27 23 21 21 19 18 18 20 19 18 17 17 16 14 14 16 15 14 16 13 11 9 13 16 16 16 17 14 11
16 18 21 23 24 25 25 25 26 25 23 21 21 19 18 20 22 21 19 16 14 13 14 14 14 13 14 12 12 9 8 8 11 14 16 16 17 17
19 20 20 20 19 19 20 21 22 22 22 23 21 20 19 19 22 22 19 17 16 15 13 11 10 12 14 16 16 11 10 12 11 11 13 17 19 21
17 21 23 23 22 20 18 17 20 22 23 24 25 22 20 18 17 19 18 18 18 15 11 10 12 12 13 15 13 11 10 12 14 14 15 14 14 11
17 18 18 20 21 21 19 18 18 19 23 23 24 23 21 21 20 17 16 17 19 18 16 13 13 15 14 13 13 13 13 12 15 16 17 14 15 18